IW2NTF-3 Weather Reports


Display with metric or nautical units.
time (UTC)temp
F
wind
direction
speed
MPH
gust
MPH
rain 1hr
in
rain 24hr
in
rain mn
in
humidity
%
barometer
mb
20260506233503 56 354 2.0 4.0 0.00 0.13 0.00 78 1011.2
20260506233403 56 355 2.0 4.0 0.00 0.13 0.00 78 1011.2
20260506233303 56 359 2.0 6.0 0.00 0.13 0.00 78 1011.1
20260506233203 56 360 2.0 6.0 0.00 0.13 0.00 78 1011.1
20260506233103 56 2 2.0 6.0 0.00 0.13 0.00 78 1011.1
20260506233003 56 2 2.0 6.0 0.00 0.13 0.00 78 1011.1
20260506232903 56 4 2.0 6.0 0.00 0.13 0.00 78 1011.1
20260506232803 56 4 2.0 6.0 0.00 0.13 0.00 78 1011.1
20260506232703 56 6 2.0 6.0 0.00 0.13 0.00 78 1011.0
20260506232603 56 9 2.0 6.0 0.00 0.13 0.00 78 1011.0
20260506232503 56 11 2.0 6.0 0.00 0.13 0.00 78 1011.1
20260506232403 56 14 1.0 6.0 0.00 0.13 0.00 78 1011.1
20260506232306 56 15 1.0 4.0 0.00 0.13 0.00 78 1011.0
20260506232203 56 18 1.0 4.0 0.00 0.13 0.00 78 1011.0
20260506232103 56 22 1.0 3.0 0.00 0.13 0.00 78 1011.0
20260506232003 56 21 1.0 3.0 0.00 0.13 0.00 78 1011.1
20260506231903 56 18 1.0 3.0 0.00 0.13 0.00 78 1011.1
20260506231803 56 19 1.0 3.0 0.00 0.13 0.00 78 1011.1
20260506231703 56 19 1.0 4.0 0.00 0.13 0.00 79 1011.1
20260506231603 56 17 2.0 4.0 0.00 0.13 0.00 78 1011.1
20260506231504 56 20 2.0 7.0 0.00 0.13 0.00 78 1011.1
20260506231403 56 20 2.0 7.0 0.00 0.13 0.00 78 1011.1
20260506231303 56 20 2.0 8.0 0.00 0.13 0.00 78 1011.1
20260506231203 56 20 3.0 8.0 0.00 0.13 0.00 78 1011.0
20260506231103 56 19 3.0 8.0 0.00 0.13 0.00 78 1011.0
20260506231003 56 17 4.0 9.0 0.00 0.13 0.00 78 1011.0
20260506230903 56 15 4.0 9.0 0.00 0.13 0.00 78 1010.9
20260506230803 56 13 4.0 9.0 0.00 0.13 0.00 78 1010.9
20260506230703 56 11 4.0 9.0 0.00 0.13 0.00 78 1010.9
20260506230603 56 11 4.0 9.0 0.00 0.13 0.00 78 1010.9
20260506230503 56 10 4.0 9.0 0.00 0.13 0.00 78 1010.9
20260506230403 56 9 4.0 9.0 0.00 0.13 0.00 78 1010.9
20260506230303 56 8 4.0 9.0 0.00 0.13 0.00 78 1010.9
20260506230203 56 8 4.0 9.0 0.00 0.13 0.00 78 1010.9
20260506230103 56 7 3.0 9.0 0.00 0.13 0.00 78 1010.9
20260506230003 56 7 3.0 8.0 0.00 0.13 0.00 78 1010.9
20260506225903 56 10 3.0 8.0 0.00 0.13 0.00 78 1010.9
20260506225803 56 11 3.0 8.0 0.00 0.13 0.00 78 1010.9
20260506225703 56 12 3.0 8.0 0.00 0.13 0.00 78 1010.9
20260506225603 56 13 3.0 6.0 0.00 0.13 0.00 79 1010.9
20260506225503 56 14 2.0 5.0 0.00 0.13 0.00 79 1010.9
20260506225403 56 16 2.0 5.0 0.00 0.13 0.00 79 1010.8
20260506225305 56 16 2.0 5.0 0.00 0.13 0.00 79 1010.8
20260506225203 56 18 2.0 5.0 0.00 0.13 0.00 79 1010.8
20260506225104 56 19 3.0 6.0 0.00 0.13 0.00 78 1010.8
20260506225003 56 19 3.0 6.0 0.00 0.13 0.00 78 1010.8
20260506224904 56 16 3.0 6.0 0.00 0.13 0.00 78 1010.8
20260506224804 56 15 3.0 6.0 0.00 0.13 0.00 78 1010.8
20260506224703 56 12 4.0 9.0 0.00 0.13 0.00 78 1010.8
20260506224603 56 10 4.0 9.0 0.00 0.13 0.00 78 1010.8
20260506224503 56 7 4.0 9.0 0.00 0.13 0.00 78 1010.8
20260506224403 56 4 4.0 9.0 0.00 0.13 0.00 78 1010.8
20260506224303 56 1 4.0 9.0 0.00 0.13 0.00 78 1010.8
20260506224203 56 357 4.0 9.0 0.00 0.13 0.00 78 1010.8
20260506224103 56 353 4.0 9.0 0.00 0.13 0.00 78 1010.8
20260506224003 56 350 4.0 9.0 0.00 0.13 0.00 78 1010.8
20260506223903 56 347 4.0 9.0 0.00 0.13 0.00 78 1010.8
20260506223803 56 345 4.0 9.0 0.00 0.13 0.00 78 1010.8
20260506223703 56 342 4.0 9.0 0.00 0.13 0.00 78 1010.8
20260506223603 56 339 4.0 9.0 0.00 0.13 0.00 78 1010.7
20260506223503 56 338 4.0 9.0 0.00 0.13 0.00 78 1010.7
20260506223403 56 338 4.0 9.0 0.00 0.13 0.00 78 1010.7
20260506223303 56 338 4.0 9.0 0.00 0.13 0.00 78 1010.8
20260506223203 56 338 4.0 9.0 0.00 0.13 0.00 78 1010.8
20260506223103 56 338 4.0 9.0 0.00 0.13 0.00 78 1010.7
20260506223003 56 339 3.0 9.0 0.00 0.13 0.00 78 1010.7
20260506222903 56 339 3.0 9.0 0.00 0.13 0.00 78 1010.7
20260506222803 56 341 3.0 8.0 0.00 0.13 0.00 78 1010.7
20260506222703 56 341 3.0 8.0 0.00 0.13 0.00 78 1010.7
20260506222603 56 343 3.0 10.0 0.00 0.13 0.00 78 1010.8
20260506222503 56 344 4.0 10.0 0.00 0.13 0.00 78 1010.7
20260506222403 56 344 4.0 10.0 0.00 0.13 0.00 78 1010.7
20260506222305 56 344 4.0 10.0 0.00 0.13 0.00 78 1010.6
20260506222203 56 343 4.0 10.0 0.00 0.13 0.00 79 1010.6
20260506222103 56 343 4.0 10.0 0.00 0.13 0.00 79 1010.7
20260506222003 56 343 4.0 10.0 0.00 0.13 0.00 79 1010.8
20260506221903 56 343 4.0 10.0 0.00 0.13 0.00 79 1010.8
20260506221803 56 342 4.0 10.0 0.00 0.13 0.00 79 1010.7
20260506221703 56 343 4.0 10.0 0.00 0.13 0.00 79 1010.7
20260506221603 56 343 3.0 8.0 0.00 0.13 0.00 79 1010.8
20260506221503 56 342 3.0 8.0 0.00 0.13 0.00 79 1010.7
20260506221403 56 343 3.0 9.0 0.00 0.13 0.00 79 1010.7
20260506221303 56 344 3.0 9.0 0.00 0.13 0.00 79 1010.8
20260506221203 56 345 4.0 9.0 0.00 0.13 0.00 79 1010.8
20260506221103 56 346 3.0 9.0 0.00 0.13 0.00 79 1010.7
20260506221003 56 348 4.0 9.0 0.00 0.13 0.00 79 1010.8
20260506220903 56 348 4.0 9.0 0.00 0.13 0.00 79 1010.8
20260506220803 56 347 3.0 9.0 0.00 0.13 0.00 79 1010.7
20260506220703 56 346 3.0 9.0 0.00 0.13 0.00 79 1010.6
20260506220604 56 347 3.0 9.0 0.00 0.13 0.00 79 1010.6
20260506220503 56 348 3.0 9.0 0.00 0.13 0.00 79 1010.8
20260506220403 56 348 3.0 8.0 0.00 0.13 0.00 79 1010.8
20260506220303 56 349 3.0 7.0 0.00 0.13 0.00 79 1010.8
20260506220203 56 349 3.0 7.0 0.00 0.13 0.00 79 1010.8
20260506220032 56 350 4.0 7.0 0.00 0.13 0.00 79 1010.8
20260506215903 56 352 4.0 8.0 0.00 0.13 0.13 79 1010.8
20260506215803 56 353 4.0 8.0 0.00 0.13 0.13 79 1010.7
20260506215703 56 352 4.0 8.0 0.00 0.13 0.13 79 1010.8
20260506215603 56 352 4.0 8.0 0.00 0.13 0.13 79 1010.8
20260506215503 56 352 4.0 8.0 0.00 0.13 0.13 79 1010.7
20260506215403 56 353 4.0 8.0 0.00 0.13 0.13 79 1010.8
20260506215306 56 352 3.0 8.0 0.00 0.13 0.13 79 1010.8
20260506215203 56 352 3.0 8.0 0.00 0.13 0.13 79 1010.7
20260506215103 56 351 3.0 8.0 0.00 0.13 0.13 79 1010.7
20260506215004 56 349 3.0 8.0 0.00 0.13 0.13 79 1010.7
20260506214903 56 347 3.0 6.0 0.00 0.13 0.13 79 1010.7
20260506214803 56 346 3.0 6.0 0.00 0.13 0.13 79 1010.7
20260506214703 56 346 3.0 6.0 0.00 0.13 0.13 79 1010.7
20260506214603 56 345 3.0 6.0 0.00 0.13 0.13 79 1010.7
20260506214503 56 344 3.0 6.0 0.00 0.13 0.13 78 1010.6
20260506214403 56 342 3.0 6.0 0.00 0.13 0.13 78 1010.7
20260506214303 56 341 3.0 6.0 0.00 0.13 0.13 78 1010.7
20260506214203 56 340 3.0 6.0 0.00 0.13 0.13 78 1010.7
20260506214103 56 341 3.0 6.0 0.00 0.13 0.13 78 1010.7
20260506214003 56 340 3.0 6.0 0.00 0.13 0.13 78 1010.5
20260506213903 56 342 3.0 6.0 0.00 0.13 0.13 78 1010.6
20260506213803 56 342 3.0 6.0 0.00 0.13 0.13 78 1010.6
20260506213704 56 342 3.0 6.0 0.00 0.13 0.13 78 1010.6
20260506213603 56 342 3.0 6.0 0.00 0.13 0.13 78 1010.6
20260506213503 56 340 3.0 6.0 0.00 0.13 0.13 78 1010.6
20260506213403 56 340 3.0 5.0 0.00 0.13 0.13 78 1010.7
20260506213303 56 341 3.0 5.0 0.00 0.13 0.13 78 1010.7
20260506213204 57 343 3.0 5.0 0.00 0.13 0.13 78 1010.7
20260506213104 57 342 3.0 5.0 0.00 0.13 0.13 78 1010.7
20260506213004 57 343 3.0 5.0 0.00 0.13 0.13 78 1010.7
20260506212903 57 343 2.0 5.0 0.00 0.13 0.13 77 1010.8
20260506212803 57 345 2.0 5.0 0.00 0.13 0.13 77 1010.8
20260506212703 57 348 2.0 5.0 0.00 0.13 0.13 77 1010.7
20260506212603 57 349 2.0 5.0 0.00 0.13 0.13 77 1010.7
20260506212503 57 353 2.0 5.0 0.00 0.13 0.13 77 1010.7
20260506212403 57 355 2.0 5.0 0.00 0.13 0.13 77 1010.8
20260506212306 57 356 3.0 5.0 0.00 0.13 0.13 77 1010.8
20260506212203 57 355 3.0 5.0 0.00 0.13 0.13 77 1010.7
20260506212103 57 357 3.0 5.0 0.00 0.13 0.13 77 1010.6
20260506212003 57 359 3.0 5.0 0.00 0.13 0.13 77 1010.6
20260506211903 57 359 3.0 5.0 0.00 0.13 0.13 77 1010.7
20260506211804 57 359 3.0 5.0 0.00 0.13 0.13 77 1010.6
20260506211703 57 359 3.0 5.0 0.00 0.13 0.13 77 1010.6
20260506211603 57 1 3.0 5.0 0.00 0.13 0.13 77 1010.6
20260506211503 57 2 3.0 5.0 0.00 0.13 0.13 77 1010.6
20260506211403 57 4 3.0 5.0 0.00 0.13 0.13 77 1010.6
20260506211303 57 5 3.0 5.0 0.00 0.13 0.13 77 1010.6
20260506211203 57 6 3.0 5.0 0.00 0.13 0.13 77 1010.6
20260506211103 57 5 3.0 5.0 0.00 0.13 0.13 77 1010.6
20260506211003 57 3 3.0 6.0 0.00 0.13 0.13 77 1010.6
20260506210903 57 2 3.0 6.0 0.00 0.13 0.13 76 1010.5
20260506210803 57 360 3.0 6.0 0.00 0.13 0.13 77 1010.5
20260506210703 57 357 3.0 6.0 0.00 0.13 0.13 76 1010.5
20260506210603 57 354 3.0 6.0 0.00 0.13 0.13 76 1010.4
20260506210503 57 353 3.0 6.0 0.00 0.13 0.13 76 1010.4
20260506210403 57 350 3.0 6.0 0.00 0.13 0.13 76 1010.4
20260506210303 57 347 3.0 6.0 0.00 0.13 0.13 76 1010.5
20260506210203 57 345 3.0 6.0 0.00 0.13 0.13 76 1010.5
20260506210004 57 344 3.0 6.0 0.00 0.13 0.13 76 1010.5
20260506205903 57 344 3.0 6.0 0.00 0.13 0.13 76 1010.5
20260506205803 57 345 3.0 8.0 0.00 0.13 0.13 76 1010.4
20260506205703 57 346 3.0 8.0 0.00 0.13 0.13 76 1010.4
20260506205603 57 348 4.0 8.0 0.00 0.13 0.13 76 1010.4
20260506205503 57 349 4.0 8.0 0.00 0.13 0.13 76 1010.4
20260506205403 57 351 4.0 8.0 0.00 0.13 0.13 76 1010.4
20260506205305 57 353 4.0 8.0 0.00 0.13 0.13 76 1010.4
20260506205204 57 353 4.0 8.0 0.00 0.13 0.13 76 1010.4
20260506205103 57 354 5.0 8.0 0.00 0.13 0.13 76 1010.3
20260506205003 57 356 5.0 8.0 0.00 0.13 0.13 76 1010.3
20260506204903 57 358 4.0 8.0 0.00 0.13 0.13 75 1010.3
20260506204803 57 359 4.0 8.0 0.00 0.13 0.13 75 1010.3
20260506204703 57 2 4.0 8.0 0.00 0.13 0.13 75 1010.3
20260506204603 57 3 4.0 8.0 0.00 0.13 0.13 75 1010.3
20260506204504 57 5 4.0 8.0 0.00 0.13 0.13 75 1010.4
20260506204403 57 8 4.0 7.0 0.00 0.13 0.13 75 1010.4
20260506204303 57 10 4.0 7.0 0.00 0.13 0.13 75 1010.3
20260506204203 57 12 3.0 7.0 0.00 0.13 0.13 75 1010.3
20260506204103 57 15 4.0 8.0 0.00 0.13 0.13 75 1010.3
20260506204004 57 15 4.0 8.0 0.00 0.13 0.13 75 1010.3
20260506203903 57 17 4.0 9.0 0.00 0.13 0.13 75 1010.3
20260506203803 57 17 4.0 9.0 0.00 0.13 0.13 75 1010.2
20260506203704 57 16 5.0 9.0 0.00 0.13 0.13 75 1010.3
20260506203604 57 15 5.0 9.0 0.00 0.13 0.13 75 1010.3
20260506203503 57 14 5.0 9.0 0.00 0.13 0.13 75 1010.2
20260506203403 57 14 5.0 9.0 0.00 0.13 0.13 75 1010.2
20260506203303 57 12 5.0 9.0 0.00 0.13 0.13 75 1010.2
20260506203203 57 12 5.0 9.0 0.00 0.13 0.13 75 1010.2
20260506203103 57 10 5.0 9.0 0.00 0.13 0.13 75 1010.2
20260506203004 57 9 5.0 9.0 0.00 0.13 0.13 75 1010.2
20260506202904 57 7 5.0 10.0 0.00 0.13 0.13 75 1010.2
20260506202803 57 6 5.0 10.0 0.00 0.13 0.13 75 1010.2
20260506202703 57 4 5.0 10.0 0.00 0.13 0.13 75 1010.1
20260506202603 57 4 5.0 10.0 0.00 0.13 0.13 75 1010.1
20260506202503 57 2 5.0 10.0 0.00 0.13 0.13 75 1010.2
20260506202403 57 2 5.0 10.0 0.00 0.13 0.13 75 1010.2
20260506202306 57 2 5.0 10.0 0.00 0.13 0.13 75 1010.2
20260506202203 58 1 5.0 10.0 0.00 0.13 0.13 75 1010.2
20260506202103 58 1 5.0 10.0 0.00 0.13 0.13 75 1010.2
20260506202003 58 360 5.0 10.0 0.00 0.13 0.13 75 1010.2
20260506201903 58 359 5.0 8.0 0.00 0.13 0.13 75 1010.2
20260506201803 58 359 5.0 8.0 0.00 0.13 0.13 74 1010.2
20260506201703 58 359 5.0 8.0 0.00 0.13 0.13 74 1010.1
20260506201603 58 359 4.0 8.0 0.00 0.13 0.13 74 1010.1
20260506201503 58 359 4.0 8.0 0.00 0.13 0.13 74 1010.2
20260506201403 58 359 5.0 9.0 0.00 0.13 0.13 74 1010.0
20260506201303 58 1 5.0 9.0 0.00 0.13 0.13 74 1010.0
20260506201203 58 360 5.0 9.0 0.00 0.13 0.13 74 1010.0
20260506201103 58 2 5.0 9.0 0.00 0.13 0.13 73 1010.1
20260506201003 58 1 5.0 9.0 0.00 0.13 0.13 73 1010.1
20260506200903 58 3 5.0 9.0 0.00 0.13 0.13 73 1010.1
20260506200803 58 4 5.0 9.0 0.00 0.13 0.13 73 1010.1
20260506200704 58 5 5.0 9.0 0.00 0.13 0.13 73 1010.1
20260506200603 58 5 5.0 9.0 0.00 0.13 0.13 72 1010.0
20260506200503 58 6 5.0 9.0 0.00 0.13 0.13 72 1010.0
20260506200404 58 5 5.0 8.0 0.00 0.13 0.13 72 1010.1
20260506200303 58 3 5.0 8.0 0.00 0.13 0.13 72 1010.1
20260506200203 58 3 5.0 10.0 0.00 0.13 0.13 72 1010.2
20260506200104 58 1 5.0 10.0 0.00 0.13 0.13 72 1010.2
20260506200004 58 1 5.0 10.0 0.00 0.13 0.13 72 1010.2
20260506195903 58 360 5.0 12.0 0.00 0.13 0.13 72 1010.1
20260506195803 58 359 6.0 12.0 0.00 0.13 0.13 72 1010.0
20260506195703 58 358 6.0 12.0 0.00 0.13 0.13 72 1010.0
20260506195603 58 358 6.0 12.0 0.00 0.13 0.13 72 1010.0
20260506195503 58 358 6.0 12.0 0.00 0.13 0.13 72 1010.0
20260506195403 58 359 5.0 12.0 0.00 0.13 0.13 72 1010.0
20260506195306 58 360 5.0 12.0 0.00 0.14 0.13 72 1010.0
20260506195203 58 359 5.0 12.0 0.00 0.14 0.13 72 1010.0
20260506195103 58 360 6.0 12.0 0.00 0.14 0.13 72 1010.1
20260506195003 59 360 6.0 12.0 0.00 0.14 0.13 73 1010.1
20260506194903 59 1 5.0 11.0 0.00 0.14 0.13 73 1010.0
20260506194803 59 1 5.0 11.0 0.00 0.14 0.13 73 1009.9
20260506194704 59 1 5.0 11.0 0.00 0.14 0.13 73 1009.9
20260506194603 59 2 5.0 11.0 0.00 0.14 0.13 73 1009.9
20260506194503 59 1 5.0 11.0 0.00 0.14 0.13 73 1009.9
20260506194403 59 360 6.0 11.0 0.00 0.14 0.13 73 1009.8
20260506194303 59 360 6.0 11.0 0.00 0.14 0.13 73 1009.8
20260506194203 59 1 6.0 11.0 0.00 0.14 0.13 73 1009.8
20260506194103 59 2 6.0 11.0 0.00 0.14 0.13 73 1009.8
20260506194003 59 4 6.0 11.0 0.00 0.14 0.13 72 1009.7
20260506193903 59 6 6.0 11.0 0.00 0.14 0.13 72 1009.7
20260506193803 60 7 5.0 11.0 0.00 0.14 0.13 72 1009.7
20260506193703 60 8 5.0 11.0 0.00 0.14 0.13 72 1009.7
20260506193603 60 8 5.0 11.0 0.00 0.14 0.13 72 1009.6
20260506193503 60 9 5.0 11.0 0.00 0.14 0.13 72 1009.6
20260506193403 60 10 4.0 11.0 0.00 0.14 0.13 72 1009.6
20260506193303 60 12 4.0 9.0 0.00 0.14 0.13 72 1009.6
20260506193203 60 13 4.0 9.0 0.00 0.14 0.13 71 1009.6
20260506193103 60 14 3.0 9.0 0.00 0.14 0.13 71 1009.6
20260506193003 61 18 3.0 6.0 0.00 0.14 0.13 71 1009.4
20260506192903 61 18 3.0 6.0 0.00 0.14 0.13 71 1009.4
20260506192803 61 27 3.0 5.0 0.00 0.14 0.13 71 1009.4
20260506192703 61 39 2.0 5.0 0.00 0.14 0.13 71 1009.2
20260506192603 61 50 2.0 5.0 0.00 0.14 0.13 71 1009.2
20260506192503 61 68 2.0 5.0 0.00 0.14 0.13 70 1009.1
20260506192403 61 77 2.0 5.0 0.00 0.14 0.13 71 1009.1
20260506192305 61 90 2.0 5.0 0.00 0.14 0.13 70 1009.1
20260506192204 61 104 2.0 5.0 0.00 0.14 0.13 70 1009.1
20260506192103 61 119 2.0 5.0 0.00 0.14 0.13 70 1009.1
20260506192003 61 133 2.0 4.0 0.00 0.14 0.13 70 1009.1
20260506191903 61 143 2.0 4.0 0.00 0.14 0.13 70 1009.1
20260506191803 61 157 1.0 4.0 0.00 0.14 0.13 70 1009.0
20260506191703 61 167 2.0 6.0 0.00 0.14 0.13 70 1008.9
20260506191603 61 165 2.0 6.0 0.00 0.14 0.13 70 1008.9
20260506191503 61 160 2.0 6.0 0.00 0.14 0.13 70 1008.9
20260506191403 61 154 2.0 6.0 0.00 0.14 0.13 70 1008.9
20260506191303 61 146 2.0 6.0 0.00 0.14 0.13 70 1008.8
20260506191203 61 133 3.0 6.0 0.00 0.14 0.13 71 1008.8
20260506191104 61 120 3.0 6.0 0.00 0.14 0.13 71 1008.8
20260506191004 60 114 3.0 6.0 0.00 0.14 0.13 71 1008.8
20260506190903 60 112 3.0 6.0 0.00 0.14 0.13 71 1008.8
20260506190803 60 113 3.0 7.0 0.00 0.14 0.13 71 1008.8
20260506190703 60 106 3.0 7.0 0.00 0.14 0.13 72 1008.9
20260506190604 60 94 3.0 7.0 0.00 0.14 0.13 72 1008.9
20260506190503 60 84 3.0 7.0 0.00 0.14 0.13 72 1008.8
20260506190403 60 85 3.0 7.0 0.00 0.14 0.13 72 1008.8
20260506190303 60 85 3.0 8.0 0.00 0.14 0.13 72 1008.8
20260506190204 60 83 3.0 8.0 0.00 0.14 0.13 72 1008.8
20260506190005 60 81 4.0 11.0 0.00 0.14 0.13 73 1008.9
20260506185903 60 75 4.0 11.0 0.00 0.14 0.13 73 1008.9
20260506185803 60 71 4.0 11.0 0.00 0.14 0.13 73 1008.9
20260506185703 60 69 4.0 11.0 0.00 0.14 0.13 73 1008.8
20260506185603 60 71 4.0 11.0 0.00 0.14 0.13 73 1008.8
20260506185503 60 70 4.0 11.0 0.00 0.14 0.13 73 1008.8
20260506185403 60 63 5.0 11.0 0.00 0.14 0.13 73 1008.8
20260506185306 60 54 5.0 11.0 0.00 0.14 0.13 73 1008.8
20260506185203 60 46 5.0 11.0 0.00 0.14 0.13 73 1008.7
20260506185103 60 30 5.0 13.0 0.00 0.14 0.13 73 1008.7
20260506185003 60 25 6.0 13.0 0.00 0.14 0.13 73 1008.7
20260506184903 59 23 6.0 13.0 0.00 0.14 0.13 73 1008.8
20260506184803 59 18 6.0 13.0 0.00 0.14 0.13 73 1008.8
20260506184703 59 15 7.0 13.0 0.00 0.14 0.13 73 1008.7
20260506184603 59 14 7.0 13.0 0.00 0.14 0.13 73 1008.7
20260506184503 59 13 8.0 13.0 0.00 0.14 0.13 73 1008.7
20260506184403 59 14 8.0 13.0 0.00 0.14 0.13 74 1008.6
20260506184303 59 15 8.0 13.0 0.00 0.14 0.13 74 1008.6
20260506184203 59 15 8.0 13.0 0.00 0.14 0.13 74 1008.7
20260506184103 59 17 8.0 14.0 0.00 0.14 0.13 74 1008.7
20260506184003 59 16 8.0 14.0 0.00 0.14 0.13 74 1008.7
20260506183903 59 14 7.0 14.0 0.00 0.14 0.13 74 1008.7
20260506183803 59 13 7.0 14.0 0.00 0.14 0.13 74 1008.7
20260506183703 59 12 7.0 14.0 0.00 0.14 0.13 74 1008.7
20260506183604 59 10 6.0 14.0 0.00 0.14 0.13 75 1008.7
20260506183503 59 9 6.0 14.0 0.00 0.14 0.13 75 1008.7
20260506183403 59 7 6.0 14.0 0.00 0.14 0.13 75 1008.6
20260506183303 59 4 6.0 14.0 0.00 0.14 0.13 75 1008.6
20260506183204 59 1 6.0 14.0 0.00 0.14 0.13 76 1008.6
20260506183103 59 357 6.0 13.0 0.00 0.14 0.13 76 1008.6
20260506183004 59 356 6.0 13.0 0.00 0.14 0.13 76 1008.6
20260506182904 59 354 6.0 13.0 0.00 0.14 0.13 76 1008.6
20260506182803 59 352 7.0 13.0 0.00 0.14 0.13 76 1008.6
20260506182703 59 352 7.0 13.0 0.00 0.14 0.13 76 1008.6
20260506182603 59 351 7.0 13.0 0.00 0.14 0.13 76 1008.6
20260506182503 59 349 7.0 13.0 0.00 0.14 0.13 76 1008.6
20260506182403 59 344 8.0 14.0 0.00 0.14 0.13 76 1008.6
20260506182306 59 341 8.0 15.0 0.00 0.14 0.13 76 1008.6
20260506182203 59 339 7.0 15.0 0.00 0.14 0.13 76 1008.6
20260506182103 59 337 7.0 15.0 0.00 0.14 0.13 76 1008.7
20260506182003 60 333 7.0 15.0 0.00 0.14 0.13 76 1008.7
20260506181903 60 333 8.0 17.0 0.00 0.14 0.13 76 1008.7
20260506181803 60 330 8.0 17.0 0.00 0.14 0.13 75 1008.6
20260506181703 60 327 8.0 17.0 0.00 0.14 0.13 75 1008.6
20260506181603 60 325 8.0 17.0 0.00 0.14 0.13 75 1008.6
20260506181504 60 323 8.0 17.0 0.00 0.14 0.13 75 1008.5
20260506181404 60 322 7.0 17.0 0.00 0.14 0.13 75 1008.5
20260506181303 60 321 7.0 17.0 0.00 0.14 0.13 74 1008.7
20260506181204 60 321 6.0 17.0 0.00 0.14 0.13 74 1008.7
20260506181103 60 319 6.0 17.0 0.00 0.14 0.13 74 1008.7
20260506181003 60 320 6.0 17.0 0.00 0.14 0.13 74 1008.7
20260506180903 60 320 5.0 15.0 0.00 0.14 0.13 74 1008.7
20260506180803 61 321 4.0 13.0 0.00 0.14 0.13 74 1008.7
20260506180703 61 321 4.0 9.0 0.00 0.14 0.13 74 1008.7
20260506180603 61 324 3.0 9.0 0.00 0.14 0.13 74 1008.6
20260506180503 61 327 3.0 8.0 0.00 0.14 0.13 74 1008.5
20260506180403 61 331 3.0 8.0 0.00 0.14 0.13 74 1008.5
20260506180303 61 336 3.0 8.0 0.00 0.14 0.13 74 1008.4
20260506180203 61 340 3.0 8.0 0.00 0.14 0.13 74 1008.4
20260506180004 61 344 3.0 5.0 0.00 0.14 0.13 74 1008.3
20260506175903 61 344 3.0 5.0 0.00 0.14 0.13 74 1008.3
20260506175803 61 339 3.0 6.0 0.00 0.14 0.13 74 1008.3
20260506175703 61 332 3.0 6.0 0.00 0.14 0.13 74 1008.3
20260506175603 61 324 3.0 6.0 0.00 0.14 0.13 73 1008.3
20260506175503 61 322 3.0 6.0 0.00 0.14 0.13 73 1008.3
20260506175403 61 324 3.0 6.0 0.00 0.14 0.13 73 1008.3
20260506175306 61 324 3.0 6.0 0.00 0.14 0.13 73 1008.2
20260506175203 61 318 3.0 6.0 0.00 0.14 0.13 73 1008.1
20260506175103 61 309 3.0 6.0 0.00 0.14 0.13 73 1008.1
20260506175004 61 303 3.0 6.0 0.00 0.14 0.13 73 1008.2
20260506174903 61 305 3.0 7.0 0.00 0.14 0.13 73 1008.2
20260506174804 61 311 3.0 7.0 0.00 0.14 0.13 73 1008.1
20260506174703 61 320 3.0 7.0 0.00 0.14 0.13 73 1008.1
20260506174603 61 329 3.0 7.0 0.00 0.14 0.13 73 1008.1
20260506174503 61 330 3.0 7.0 0.00 0.14 0.13 74 1008.1
20260506174403 61 325 3.0 7.0 0.00 0.14 0.13 73 1008.1
20260506174303 61 321 3.0 7.0 0.00 0.14 0.13 73 1008.1
20260506174203 61 324 3.0 7.0 0.00 0.14 0.13 73 1008.1
20260506174103 61 336 3.0 9.0 0.00 0.14 0.13 73 1008.1
20260506174004 61 342 3.0 9.0 0.00 0.14 0.13 73 1008.1
20260506173903 61 347 3.0 9.0 0.00 0.14 0.13 73 1008.1
20260506173804 61 354 3.0 9.0 0.00 0.14 0.13 73 1008.1
20260506173703 61 360 3.0 9.0 0.00 0.14 0.13 73 1008.1
20260506173603 61 2 3.0 9.0 0.00 0.14 0.13 73 1008.1
20260506173503 61 3 3.0 9.0 0.00 0.14 0.13 73 1008.1
20260506173403 61 8 3.0 9.0 0.00 0.14 0.13 73 1007.9
20260506173303 61 9 4.0 9.0 0.00 0.14 0.13 73 1007.9
20260506173203 61 9 4.0 9.0 0.00 0.14 0.13 73 1007.9
20260506173103 61 9 4.0 7.0 0.00 0.14 0.13 74 1007.9
20260506173003 61 9 4.0 6.0 0.00 0.14 0.13 74 1007.9
20260506172903 61 7 4.0 6.0 0.00 0.14 0.13 74 1007.9
20260506172803 61 3 3.0 6.0 0.00 0.14 0.13 74 1007.9
20260506172703 61 360 3.0 6.0 0.00 0.14 0.13 74 1007.9
20260506172603 61 359 3.0 6.0 0.00 0.14 0.13 74 1007.9
20260506172503 61 358 3.0 6.0 0.00 0.14 0.13 74 1007.9
20260506172403 61 357 3.0 6.0 0.00 0.14 0.13 74 1007.8
20260506172306 61 354 3.0 6.0 0.00 0.14 0.13 74 1007.8
20260506172203 61 353 3.0 9.0 0.00 0.14 0.13 74 1007.7
20260506172103 61 352 3.0 9.0 0.00 0.14 0.13 74 1007.8
20260506172003 61 352 3.0 9.0 0.00 0.14 0.13 74 1007.8
20260506171903 61 352 4.0 9.0 0.00 0.14 0.13 73 1007.8
20260506171803 61 353 4.0 9.0 0.00 0.14 0.13 73 1007.8
20260506171703 61 353 4.0 9.0 0.00 0.14 0.13 73 1007.7
20260506171603 61 353 5.0 9.0 0.00 0.14 0.13 73 1007.7
20260506171503 61 353 5.0 9.0 0.00 0.14 0.13 73 1007.7
20260506171403 61 354 5.0 9.0 0.00 0.14 0.13 73 1007.7
20260506171303 61 356 5.0 9.0 0.00 0.14 0.13 73 1007.5
20260506171203 61 357 5.0 9.0 0.00 0.14 0.13 73 1007.5
20260506171103 61 358 5.0 9.0 0.00 0.14 0.13 73 1007.6
20260506171003 61 357 5.0 9.0 0.00 0.14 0.13 73 1007.6
20260506170903 61 357 5.0 9.0 0.00 0.14 0.13 73 1007.6
20260506170803 61 358 5.0 9.0 0.00 0.14 0.13 73 1007.6
20260506170703 61 358 5.0 9.0 0.00 0.14 0.13 73 1007.6
20260506170603 61 357 5.0 10.0 0.00 0.14 0.13 73 1007.6
20260506170503 61 356 5.0 10.0 0.00 0.14 0.13 72 1007.6
20260506170403 61 356 5.0 10.0 0.00 0.14 0.13 72 1007.6
20260506170303 61 354 5.0 10.0 0.00 0.14 0.13 72 1007.6
20260506170203 61 352 5.0 10.0 0.00 0.14 0.13 72 1007.6
20260506170103 61 349 5.0 11.0 0.00 0.14 0.13 72 1007.6
20260506170004 61 349 5.0 11.0 0.00 0.14 0.13 72 1007.6
20260506165904 61 347 6.0 11.0 0.00 0.14 0.13 72 1007.6
20260506165804 62 348 6.0 11.0 0.00 0.14 0.13 71 1007.5
20260506165703 62 347 6.0 11.0 0.00 0.14 0.13 71 1007.5
20260506165603 62 347 5.0 11.0 0.00 0.14 0.13 71 1007.5
20260506165503 62 348 5.0 11.0 0.00 0.14 0.13 71 1007.6
20260506165403 62 348 6.0 11.0 0.00 0.14 0.13 71 1007.6
20260506165305 62 351 6.0 12.0 0.00 0.14 0.13 71 1007.5
20260506165203 62 353 7.0 13.0 0.00 0.14 0.13 71 1007.5
20260506165103 62 354 7.0 13.0 0.00 0.14 0.13 70 1007.5
20260506165003 62 355 7.0 13.0 0.00 0.14 0.13 70 1007.4
20260506164903 62 357 7.0 13.0 0.00 0.14 0.13 71 1007.4
20260506164804 62 358 7.0 13.0 0.00 0.14 0.13 71 1007.5
20260506164703 62 358 8.0 13.0 0.00 0.14 0.13 70 1007.5
20260506164603 62 358 8.0 13.0 0.00 0.14 0.13 70 1007.5
20260506164504 62 358 8.0 13.0 0.00 0.14 0.13 70 1007.5
20260506164403 62 358 9.0 13.0 0.00 0.14 0.13 70 1007.5
20260506164303 62 357 8.0 13.0 0.00 0.14 0.13 70 1007.4
20260506164203 62 355 8.0 13.0 0.00 0.14 0.13 70 1007.4
20260506164103 62 355 8.0 14.0 0.00 0.14 0.13 70 1007.4
20260506164003 62 353 8.0 14.0 0.00 0.14 0.13 70 1007.5
20260506163903 62 351 7.0 14.0 0.00 0.14 0.13 70 1007.5
20260506163803 62 349 7.0 14.0 0.00 0.14 0.13 70 1007.5
20260506163703 63 349 7.0 14.0 0.00 0.14 0.13 70 1007.4
20260506163603 63 348 7.0 14.0 0.00 0.14 0.13 70 1007.4
20260506163503 63 348 7.0 14.0 0.00 0.14 0.13 70 1007.4
20260506163403 63 348 7.0 14.0 0.00 0.14 0.13 70 1007.4
20260506163303 63 349 6.0 14.0 0.00 0.14 0.13 70 1007.4
20260506163203 63 350 6.0 14.0 0.00 0.14 0.13 70 1007.3
20260506163103 63 350 6.0 12.0 0.00 0.14 0.13 70 1007.3
20260506163003 63 350 6.0 12.0 0.00 0.14 0.13 70 1007.3
20260506162903 63 350 6.0 11.0 0.00 0.14 0.13 70 1007.3
20260506162803 63 348 6.0 11.0 0.00 0.14 0.13 70 1007.2
20260506162703 64 345 7.0 13.0 0.00 0.14 0.13 70 1007.1
20260506162603 64 343 6.0 13.0 0.00 0.14 0.13 70 1007.1
20260506162503 64 340 6.0 13.0 0.00 0.14 0.13 70 1007.2
20260506162403 64 338 6.0 13.0 0.00 0.14 0.13 70 1007.0
20260506162306 64 336 6.0 13.0 0.00 0.14 0.13 69 1007.0
20260506162203 64 334 6.0 13.0 0.00 0.14 0.13 69 1007.0
20260506162103 64 334 6.0 13.0 0.00 0.14 0.13 69 1007.0
20260506162003 64 332 6.0 13.0 0.00 0.14 0.13 69 1006.9
20260506161803 65 334 5.0 13.0 0.00 0.14 0.13 69 1006.9
20260506161703 65 337 5.0 9.0 0.00 0.14 0.13 69 1006.8
20260506161604 65 338 5.0 9.0 0.00 0.14 0.13 68 1006.8
20260506161503 65 340 5.0 9.0 0.00 0.14 0.13 68 1006.7
20260506161403 65 344 5.0 9.0 0.00 0.14 0.13 68 1006.7
20260506161303 65 346 5.0 9.0 0.00 0.14 0.13 68 1006.7
20260506161203 64 351 5.0 11.0 0.00 0.14 0.13 67 1006.7
20260506161103 64 354 6.0 11.0 0.00 0.14 0.13 67 1006.7
20260506160903 64 356 6.0 11.0 0.00 0.14 0.13 67 1006.4
20260506160803 64 357 6.0 11.0 0.00 0.14 0.13 67 1006.4
20260506160704 64 356 6.0 11.0 0.00 0.14 0.13 67 1006.3
20260506160604 64 356 7.0 12.0 0.00 0.14 0.13 67 1006.2
20260506160503 64 355 7.0 13.0 0.00 0.14 0.13 67 1006.2
20260506160403 65 355 7.0 13.0 0.00 0.14 0.13 67 1006.2
20260506160303 65 356 8.0 13.0 0.00 0.14 0.13 67 1006.2
20260506160203 65 356 8.0 13.0 0.00 0.14 0.13 67 1006.1
20260506160103 65 356 7.0 13.0 0.00 0.14 0.13 67 1006.1
20260506160004 65 357 8.0 13.0 0.00 0.14 0.13 67 1006.1
20260506155903 65 358 8.0 13.0 0.00 0.14 0.13 67 1006.2
20260506155803 64 359 8.0 13.0 0.00 0.14 0.13 67 1006.2
20260506155703 65 359 8.0 13.0 0.00 0.14 0.13 67 1006.1
20260506155603 65 360 8.0 13.0 0.00 0.14 0.13 67 1006.2
20260506155503 65 1 7.0 12.0 0.00 0.14 0.13 67 1006.2
20260506155403 65 358 7.0 12.0 0.00 0.14 0.13 67 1006.2
20260506155306 65 356 7.0 12.0 0.00 0.14 0.13 67 1006.2
20260506155203 65 355 6.0 11.0 0.00 0.14 0.13 67 1006.2
20260506155103 65 353 6.0 11.0 0.00 0.14 0.13 67 1006.2
20260506155003 65 353 6.0 12.0 0.00 0.14 0.13 67 1006.2
20260506154903 65 353 7.0 12.0 0.00 0.14 0.13 67 1006.2
20260506154803 65 352 7.0 12.0 0.00 0.14 0.13 67 1006.3
20260506154703 65 349 7.0 12.0 0.00 0.14 0.13 67 1006.3
20260506154603 65 348 6.0 12.0 0.00 0.14 0.13 67 1006.3
20260506154503 65 348 6.0 12.0 0.00 0.14 0.13 68 1006.3
20260506154403 65 347 7.0 14.0 0.00 0.14 0.13 67 1006.4
20260506154303 65 342 7.0 14.0 0.00 0.14 0.13 67 1006.4
20260506154203 65 339 8.0 15.0 0.00 0.14 0.13 67 1006.4
20260506154103 65 335 8.0 15.0 0.00 0.14 0.13 67 1006.4
20260506154003 65 334 8.0 15.0 0.00 0.14 0.13 67 1006.4
20260506153903 65 335 9.0 15.0 0.00 0.14 0.13 67 1006.5
20260506153803 65 338 9.0 15.0 0.00 0.14 0.13 67 1006.6
20260506153703 65 341 8.0 15.0 0.00 0.14 0.13 67 1006.6
20260506153603 65 343 8.0 15.0 0.00 0.14 0.13 67 1006.5
20260506153503 65 344 8.0 15.0 0.00 0.14 0.13 67 1006.6
20260506153403 66 349 8.0 15.0 0.00 0.14 0.13 67 1006.6
20260506153304 66 355 8.0 15.0 0.00 0.14 0.13 67 1006.6
20260506153203 66 358 7.0 15.0 0.00 0.14 0.13 67 1006.6
20260506153103 66 3 7.0 14.0 0.00 0.14 0.13 67 1006.5
20260506153003 66 1 6.0 13.0 0.00 0.14 0.13 66 1006.5
20260506152904 66 360 6.0 13.0 0.00 0.14 0.13 65 1006.5
20260506152804 66 355 6.0 10.0 0.00 0.14 0.13 65 1006.6
20260506152704 67 348 6.0 15.0 0.00 0.14 0.13 65 1006.6
20260506152603 67 343 5.0 15.0 0.00 0.14 0.13 64 1006.6
20260506152504 68 340 5.0 15.0 0.00 0.14 0.13 63 1006.5
20260506152403 68 321 5.0 15.0 0.00 0.14 0.13 63 1006.5
20260506152305 69 301 5.0 15.0 0.00 0.14 0.13 62 1006.5
20260506152203 70 274 5.0 15.0 0.00 0.14 0.13 61 1006.5
20260506152103 70 245 5.0 15.0 0.00 0.14 0.13 60 1006.6
20260506152003 71 227 6.0 15.0 0.00 0.14 0.13 58 1006.6
20260506151903 72 221 6.0 15.0 0.00 0.14 0.13 53 1006.6
20260506151803 72 217 6.0 15.0 0.00 0.14 0.13 53 1006.5
20260506151703 72 218 7.0 14.0 0.00 0.14 0.13 54 1006.5
20260506151603 72 220 8.0 16.0 0.00 0.14 0.13 54 1006.5
20260506151504 72 222 8.0 16.0 0.00 0.14 0.13 54 1006.5
20260506151403 72 222 8.0 16.0 0.00 0.14 0.13 53 1006.5
20260506151303 72 216 8.0 16.0 0.00 0.14 0.13 53 1006.5
20260506151203 72 214 8.0 16.0 0.00 0.14 0.13 53 1006.5
20260506151103 72 213 8.0 16.0 0.00 0.14 0.13 53 1006.5
20260506151003 72 213 8.0 16.0 0.00 0.14 0.13 53 1006.5
20260506150903 72 209 8.0 16.0 0.00 0.14 0.13 52 1006.5
20260506150803 72 207 8.0 16.0 0.00 0.14 0.13 52 1006.5
20260506150703 72 203 8.0 16.0 0.00 0.14 0.13 52 1006.6
20260506150603 72 195 8.0 17.0 0.00 0.14 0.13 52 1006.6
20260506150503 72 192 8.0 17.0 0.00 0.14 0.13 50 1006.5
20260506150403 72 191 8.0 17.0 0.00 0.14 0.13 50 1006.5
20260506150304 72 191 8.0 19.0 0.00 0.14 0.13 51 1006.5
20260506150203 72 190 9.0 19.0 0.00 0.14 0.13 51 1006.5
20260506150004 72 188 9.0 20.0 0.00 0.14 0.13 52 1006.5
20260506145903 72 189 9.0 20.0 0.00 0.14 0.13 51 1006.5
20260506145803 72 188 10.0 20.0 0.00 0.14 0.13 51 1006.5
20260506145703 72 187 10.0 20.0 0.00 0.14 0.13 50 1006.5
20260506145603 72 188 9.0 20.0 0.00 0.14 0.13 51 1006.5
20260506145503 72 190 9.0 20.0 0.00 0.14 0.13 52 1006.5
20260506145403 72 189 9.0 20.0 0.00 0.14 0.13 52 1006.4
20260506145305 72 189 9.0 20.0 0.00 0.14 0.13 51 1006.4
20260506145203 72 190 9.0 20.0 0.00 0.14 0.13 51 1006.4
20260506145104 72 190 9.0 20.0 0.00 0.14 0.13 50 1006.4
20260506145003 72 190 9.0 17.0 0.00 0.14 0.13 51 1006.5
20260506144903 72 190 9.0 19.0 0.00 0.14 0.13 52 1006.5
20260506144803 72 190 10.0 20.0 0.00 0.14 0.13 53 1006.5
20260506144703 72 192 10.0 21.0 0.00 0.14 0.13 53 1006.5
20260506144604 71 192 11.0 21.0 0.00 0.14 0.13 53 1006.5
20260506144503 71 190 12.0 21.0 0.00 0.14 0.13 53 1006.5
20260506144403 71 190 12.0 21.0 0.00 0.14 0.13 53 1006.4
20260506144303 71 190 13.0 23.0 0.00 0.14 0.13 53 1006.4
20260506144203 71 189 13.0 23.0 0.00 0.14 0.13 52 1006.4
20260506144103 71 190 13.0 23.0 0.00 0.14 0.13 52 1006.5
20260506144003 71 190 12.0 23.0 0.00 0.14 0.13 52 1006.5
20260506143903 71 189 12.0 23.0 0.00 0.14 0.13 53 1006.5
20260506143804 71 188 12.0 23.0 0.00 0.14 0.13 53 1006.5
20260506143703 72 189 11.0 23.0 0.00 0.14 0.13 54 1006.4
20260506143603 72 187 11.0 23.0 0.00 0.14 0.13 54 1006.4
20260506143504 72 186 11.0 23.0 0.00 0.14 0.13 55 1006.4
20260506143404 72 184 10.0 23.0 0.00 0.14 0.13 56 1006.4
20260506143303 72 182 10.0 18.0 0.00 0.14 0.13 56 1006.4
20260506143203 72 182 10.0 19.0 0.00 0.14 0.13 55 1006.4
20260506143103 72 179 10.0 19.0 0.00 0.14 0.13 55 1006.4
20260506143003 72 175 10.0 19.0 0.00 0.14 0.13 55 1006.4
20260506142903 72 173 10.0 23.0 0.00 0.14 0.13 56 1006.5
20260506142803 72 172 11.0 23.0 0.00 0.14 0.13 56 1006.4
20260506142703 72 168 11.0 23.0 0.00 0.14 0.13 55 1006.4
20260506142603 72 169 11.0 23.0 0.00 0.14 0.13 55 1006.5
20260506142503 72 170 11.0 23.0 0.00 0.14 0.13 55 1006.5
20260506142403 72 171 11.0 23.0 0.00 0.14 0.13 55 1006.4
20260506142305 71 172 11.0 23.0 0.00 0.14 0.13 55 1006.4
20260506142203 71 173 11.0 23.0 0.00 0.14 0.13 55 1006.4
20260506142103 71 173 11.0 23.0 0.00 0.14 0.13 56 1006.4
20260506142003 71 175 12.0 23.0 0.00 0.14 0.13 56 1006.4
20260506141903 71 173 11.0 20.0 0.00 0.14 0.13 56 1006.4
20260506141803 71 174 11.0 20.0 0.00 0.14 0.13 56 1006.5
20260506141703 71 173 11.0 20.0 0.00 0.14 0.13 56 1006.5
20260506141603 71 171 11.0 20.0 0.00 0.14 0.13 58 1006.4
20260506141503 71 168 10.0 20.0 0.00 0.14 0.13 58 1006.4
20260506141403 71 165 10.0 20.0 0.00 0.14 0.13 59 1006.4
20260506141303 70 162 10.0 20.0 0.00 0.14 0.13 60 1006.4
20260506141204 70 157 9.0 20.0 0.00 0.14 0.13 61 1006.4
20260506141103 70 150 9.0 20.0 0.00 0.14 0.13 63 1006.4
20260506141003 70 146 8.0 16.0 0.00 0.14 0.13 63 1006.3
20260506140903 70 144 8.0 15.0 0.00 0.14 0.13 65 1006.3
20260506140803 70 136 8.0 14.0 0.00 0.14 0.13 68 1006.5
20260506140703 70 134 8.0 14.0 0.00 0.14 0.13 68 1006.5
20260506140603 70 129 7.0 13.0 0.00 0.14 0.13 69 1006.4
20260506140503 70 123 7.0 13.0 0.00 0.14 0.13 69 1006.5
20260506140403 70 123 8.0 13.0 0.00 0.14 0.13 69 1006.5
20260506140303 69 122 8.0 13.0 0.00 0.14 0.13 70 1006.4
20260506140203 69 123 8.0 13.0 0.00 0.14 0.13 70 1006.4
20260506140103 69 127 8.0 14.0 0.00 0.14 0.13 71 1006.4
20260506140004 69 127 8.0 14.0 0.00 0.14 0.13 71 1006.5
20260506135903 68 125 8.0 14.0 0.00 0.14 0.13 71 1006.5
20260506135803 68 128 9.0 14.0 0.00 0.14 0.13 71 1006.5
20260506135703 68 130 9.0 14.0 0.00 0.14 0.13 72 1006.5
20260506135604 68 132 9.0 14.0 0.00 0.14 0.13 72 1006.5
20260506135503 68 134 9.0 15.0 0.00 0.14 0.13 72 1006.6
20260506135403 68 135 9.0 15.0 0.00 0.14 0.13 73 1006.6
20260506135306 68 135 8.0 15.0 0.00 0.14 0.13 73 1006.6
20260506135203 68 133 9.0 15.0 0.00 0.14 0.13 72 1006.6
20260506135103 68 132 8.0 15.0 0.00 0.14 0.13 73 1006.6
20260506135003 68 132 8.0 15.0 0.00 0.14 0.13 73 1006.6
20260506134903 68 132 8.0 15.0 0.00 0.14 0.13 73 1006.6
20260506134803 68 133 8.0 15.0 0.00 0.14 0.13 73 1006.6
20260506134703 68 133 8.0 15.0 0.00 0.14 0.13 74 1006.7
20260506134603 67 130 8.0 15.0 0.00 0.14 0.13 74 1006.7
20260506134503 67 128 8.0 15.0 0.00 0.14 0.13 74 1006.6
20260506134403 67 128 8.0 15.0 0.00 0.14 0.13 74 1006.6
20260506134303 67 127 8.0 15.0 0.00 0.14 0.13 74 1006.7
20260506134203 67 126 8.0 15.0 0.00 0.14 0.13 74 1006.7
20260506134103 67 126 8.0 15.0 0.00 0.14 0.13 75 1006.7
20260506134003 67 124 7.0 15.0 0.00 0.14 0.13 75 1006.8
20260506133903 67 125 7.0 14.0 0.00 0.14 0.13 75 1006.6
20260506133803 67 123 7.0 13.0 0.00 0.14 0.13 75 1006.6
20260506133703 67 120 7.0 13.0 0.00 0.14 0.13 76 1006.7
20260506133603 66 120 7.0 12.0 0.00 0.14 0.13 76 1006.7
20260506133503 66 120 7.0 12.0 0.00 0.14 0.13 76 1006.7
20260506133403 66 120 7.0 12.0 0.00 0.14 0.13 75 1006.7
20260506133303 66 120 7.0 12.0 0.00 0.14 0.13 75 1006.7
20260506133203 66 121 7.0 12.0 0.00 0.14 0.13 75 1006.8
20260506133103 66 121 7.0 11.0 0.00 0.14 0.13 75 1006.8
20260506133003 66 121 7.0 11.0 0.00 0.14 0.13 75 1006.8
20260506132903 66 120 7.0 11.0 0.00 0.14 0.13 75 1006.8
20260506132804 66 119 7.0 11.0 0.00 0.14 0.13 74 1006.8
20260506132703 66 120 7.0 11.0 0.00 0.14 0.13 74 1006.9
20260506132603 66 120 7.0 13.0 0.00 0.14 0.13 74 1006.9
20260506132504 66 121 8.0 13.0 0.00 0.14 0.13 74 1006.9
20260506132403 66 121 8.0 13.0 0.00 0.14 0.13 74 1007.0
20260506132307 66 120 8.0 13.0 0.00 0.14 0.13 74 1007.0
20260506132203 66 122 8.0 14.0 0.00 0.14 0.13 73 1007.0
20260506132103 66 125 8.0 14.0 0.00 0.14 0.13 73 1007.0
20260506132003 66 127 8.0 14.0 0.00 0.14 0.13 73 1007.0
20260506131904 66 128 8.0 14.0 0.00 0.14 0.13 73 1007.0
20260506131803 66 129 8.0 14.0 0.00 0.14 0.13 73 1007.0
20260506131703 66 127 8.0 14.0 0.00 0.14 0.13 74 1007.0
20260506131603 66 127 7.0 14.0 0.00 0.14 0.13 74 1007.0
20260506131503 66 126 7.0 14.0 0.00 0.14 0.13 74 1007.0
20260506131403 66 124 7.0 14.0 0.00 0.14 0.13 74 1007.0
20260506131303 66 123 7.0 14.0 0.00 0.14 0.13 74 1007.0
20260506131203 66 120 7.0 12.0 0.00 0.14 0.13 74 1007.0
20260506131103 66 116 7.0 11.0 0.00 0.14 0.13 75 1007.2
20260506131003 67 112 6.0 11.0 0.00 0.14 0.13 76 1007.2
20260506130903 67 110 6.0 11.0 0.00 0.14 0.13 76 1007.0
20260506130803 66 108 6.0 11.0 0.00 0.14 0.13 76 1007.2
20260506130703 66 109 6.0 11.0 0.00 0.14 0.13 76 1007.2
20260506130603 66 108 6.0 14.0 0.00 0.14 0.13 76 1007.2
20260506130503 66 106 6.0 14.0 0.00 0.14 0.13 77 1007.2
20260506130403 66 107 6.0 14.0 0.00 0.14 0.13 77 1007.2
20260506130303 66 109 6.0 14.0 0.00 0.14 0.13 77 1007.2
20260506130203 66 105 6.0 14.0 0.00 0.14 0.13 77 1007.2
20260506130103 66 105 6.0 14.0 0.00 0.14 0.13 77 1007.2
20260506130004 66 106 7.0 14.0 0.00 0.14 0.13 77 1007.2
20260506125903 66 104 7.0 14.0 0.00 0.14 0.13 76 1007.2
20260506125803 66 105 7.0 14.0 0.00 0.14 0.13 76 1007.1
20260506125703 66 105 7.0 14.0 0.00 0.14 0.13 76 1007.1
20260506125603 66 107 7.0 13.0 0.00 0.14 0.13 75 1007.1
20260506125503 66 111 7.0 15.0 0.00 0.14 0.13 75 1007.1
20260506125403 66 111 8.0 15.0 0.00 0.14 0.13 75 1007.1
20260506125305 66 109 8.0 15.0 0.00 0.14 0.13 76 1007.1
20260506125203 67 112 7.0 15.0 0.00 0.14 0.13 75 1007.1
20260506125103 66 114 8.0 15.0 0.00 0.14 0.13 75 1007.0
20260506125003 66 114 8.0 15.0 0.00 0.14 0.13 75 1007.1
20260506124903 66 117 8.0 15.0 0.00 0.14 0.13 75 1007.1
20260506124803 66 118 9.0 15.0 0.00 0.14 0.13 75 1007.2
20260506124703 67 121 9.0 15.0 0.00 0.14 0.13 74 1007.2
20260506124603 67 122 9.0 15.0 0.00 0.14 0.13 74 1007.2
20260506124503 67 122 8.0 15.0 0.00 0.14 0.13 74 1007.2
20260506124403 67 122 8.0 15.0 0.00 0.14 0.13 74 1007.2
20260506124303 67 124 9.0 15.0 0.00 0.14 0.13 74 1007.1
20260506124203 67 125 9.0 17.0 0.00 0.14 0.13 74 1007.1
20260506124103 67 124 9.0 17.0 0.00 0.14 0.13 74 1007.1
20260506124003 67 121 9.0 17.0 0.00 0.14 0.13 74 1007.3
20260506123903 67 118 8.0 17.0 0.00 0.14 0.13 73 1007.3
20260506123803 67 117 8.0 17.0 0.00 0.14 0.13 73 1007.0
20260506123703 67 116 8.0 17.0 0.00 0.14 0.13 73 1007.2
20260506123603 67 110 8.0 17.0 0.00 0.14 0.13 73 1007.2
20260506123503 67 107 9.0 17.0 0.00 0.14 0.13 72 1007.2
20260506123403 68 104 9.0 17.0 0.00 0.14 0.13 72 1007.2
20260506123303 68 100 9.0 17.0 0.00 0.14 0.13 73 1007.2
20260506123203 68 96 9.0 18.0 0.00 0.14 0.13 73 1007.1
20260506123104 68 96 10.0 19.0 0.00 0.14 0.13 74 1007.1
20260506123003 68 98 10.0 19.0 0.00 0.14 0.13 74 1007.1
20260506122903 67 103 10.0 19.0 0.00 0.14 0.13 74 1007.1
20260506122803 67 105 11.0 19.0 0.00 0.14 0.13 74 1007.0
20260506122703 67 104 11.0 19.0 0.00 0.14 0.13 74 1007.0
20260506122603 67 107 11.0 19.0 0.00 0.14 0.13 74 1007.0
20260506122503 67 108 11.0 19.0 0.00 0.14 0.13 74 1007.0
20260506122403 67 108 10.0 19.0 0.00 0.14 0.13 74 1007.0
20260506122305 67 110 10.0 19.0 0.00 0.14 0.13 75 1007.1
20260506122203 67 113 9.0 19.0 0.00 0.14 0.13 75 1007.2
20260506122103 67 114 9.0 17.0 0.00 0.14 0.13 75 1007.2
20260506122003 67 113 9.0 17.0 0.00 0.14 0.13 74 1007.2
20260506121903 67 109 8.0 17.0 0.00 0.14 0.13 75 1007.1
20260506121803 67 105 8.0 17.0 0.00 0.14 0.13 75 1007.1
20260506121703 67 104 7.0 14.0 0.00 0.14 0.13 76 1007.1
20260506121603 66 104 7.0 14.0 0.00 0.14 0.13 76 1007.1
20260506121503 66 104 7.0 14.0 0.00 0.14 0.13 76 1007.2
20260506121403 66 106 7.0 14.0 0.00 0.14 0.13 77 1007.2
20260506121303 66 109 7.0 14.0 0.00 0.14 0.13 77 1007.2
20260506121203 66 110 7.0 14.0 0.00 0.14 0.13 77 1007.2
20260506121103 65 111 7.0 14.0 0.00 0.14 0.13 77 1007.2
20260506121003 65 111 7.0 14.0 0.00 0.14 0.13 77 1007.1
20260506120903 65 113 7.0 14.0 0.00 0.14 0.13 77 1007.3
20260506120803 65 114 7.0 14.0 0.00 0.14 0.13 77 1007.3
20260506120703 65 112 8.0 15.0 0.00 0.14 0.13 77 1007.2
20260506120603 65 110 8.0 16.0 0.00 0.14 0.13 77 1007.2
20260506120503 65 109 8.0 16.0 0.00 0.14 0.13 77 1007.3
20260506120403 65 107 9.0 17.0 0.00 0.14 0.13 76 1007.4
20260506120303 65 104 9.0 17.0 0.00 0.14 0.13 76 1007.4
20260506120203 65 103 9.0 17.0 0.00 0.14 0.13 76 1007.3
20260506120103 65 103 9.0 17.0 0.00 0.14 0.13 76 1007.3
20260506120005 66 105 9.0 17.0 0.00 0.14 0.13 76 1007.3
20260506115903 66 105 10.0 17.0 0.00 0.14 0.13 76 1007.2
20260506115803 66 104 9.0 17.0 0.00 0.14 0.13 75 1007.2
20260506115703 66 105 9.0 17.0 0.00 0.14 0.13 75 1007.3
20260506115604 66 109 9.0 17.0 0.00 0.14 0.13 75 1007.3
20260506115504 66 112 9.0 17.0 0.00 0.14 0.13 75 1007.3
20260506115403 66 116 9.0 18.0 0.00 0.14 0.13 75 1007.4
20260506115306 67 119 9.0 18.0 0.00 0.14 0.13 75 1007.4
20260506115203 67 119 9.0 18.0 0.00 0.14 0.13 75 1007.3
20260506115103 67 120 10.0 18.0 0.00 0.14 0.13 75 1007.3
20260506115003 67 120 10.0 18.0 0.00 0.14 0.13 76 1007.3
20260506114903 67 120 10.0 18.0 0.00 0.14 0.13 76 1007.2
20260506114803 66 122 10.0 18.0 0.00 0.14 0.13 76 1007.3
20260506114703 66 123 10.0 18.0 0.00 0.14 0.13 76 1007.3
20260506114604 66 122 10.0 18.0 0.00 0.14 0.13 76 1007.4
20260506114503 66 121 10.0 18.0 0.00 0.14 0.13 76 1007.4
20260506114403 66 119 9.0 19.0 0.00 0.14 0.13 76 1007.4
20260506114303 66 118 9.0 19.0 0.00 0.14 0.13 76 1007.4
20260506114203 66 118 9.0 19.0 0.00 0.14 0.13 77 1007.4
20260506114103 66 115 9.0 19.0 0.00 0.14 0.13 76 1007.4
20260506114003 66 113 9.0 19.0 0.00 0.14 0.13 76 1007.4
20260506113903 66 111 9.0 19.0 0.00 0.14 0.13 76 1007.5
20260506113803 66 110 8.0 19.0 0.00 0.14 0.13 76 1007.5
20260506113703 66 108 8.0 19.0 0.00 0.14 0.13 76 1007.5
20260506113603 66 109 9.0 19.0 0.00 0.14 0.13 76 1007.6
20260506113503 66 107 8.0 19.0 0.00 0.14 0.13 77 1007.6
20260506113403 65 108 8.0 15.0 0.00 0.14 0.13 77 1007.6
20260506113303 65 107 8.0 15.0 0.00 0.14 0.13 76 1007.6
20260506113203 65 105 8.0 15.0 0.00 0.14 0.13 77 1007.6
20260506113103 65 108 8.0 15.0 0.00 0.14 0.13 77 1007.6
20260506113003 65 110 9.0 15.0 0.00 0.14 0.13 78 1007.6
20260506112903 65 110 9.0 15.0 0.00 0.14 0.13 78 1007.6
20260506112803 65 110 9.0 15.0 0.00 0.14 0.13 78 1007.6
20260506112703 65 113 9.0 15.0 0.00 0.14 0.13 78 1007.6
20260506112603 64 113 8.0 15.0 0.00 0.14 0.13 78 1007.7
20260506112503 64 113 8.0 15.0 0.00 0.14 0.13 78 1007.6
20260506112403 64 112 8.0 15.0 0.00 0.14 0.13 78 1007.6
20260506112305 64 115 8.0 15.0 0.00 0.14 0.13 78 1007.6
20260506112203 64 117 8.0 15.0 0.00 0.14 0.13 78 1007.6
20260506112103 64 115 8.0 15.0 0.00 0.14 0.13 78 1007.8
20260506112003 64 113 8.0 15.0 0.00 0.14 0.13 78 1007.7
20260506111903 64 115 8.0 15.0 0.00 0.14 0.13 78 1007.7
20260506111803 64 117 8.0 18.0 0.00 0.14 0.13 78 1007.7
20260506111703 64 114 8.0 18.0 0.00 0.14 0.13 78 1007.7
20260506111603 64 115 8.0 18.0 0.00 0.14 0.13 78 1007.8
20260506111503 64 117 9.0 18.0 0.00 0.14 0.13 78 1007.7
20260506111403 64 119 9.0 19.0 0.00 0.14 0.13 78 1007.7
20260506111303 64 119 9.0 19.0 0.00 0.14 0.13 79 1007.7
20260506111203 64 119 9.0 19.0 0.00 0.14 0.13 78 1007.8
20260506111104 64 121 9.0 19.0 0.00 0.14 0.13 79 1007.8
20260506111003 64 123 8.0 19.0 0.00 0.14 0.13 79 1007.9
20260506110903 64 123 8.0 19.0 0.00 0.14 0.13 79 1007.9
20260506110803 64 120 8.0 19.0 0.00 0.14 0.13 80 1007.8
20260506110704 64 120 8.0 19.0 0.00 0.14 0.13 80 1007.9
20260506110603 64 116 8.0 19.0 0.00 0.14 0.13 80 1007.9
20260506110503 64 115 8.0 19.0 0.00 0.14 0.13 80 1007.9
20260506110403 64 113 7.0 16.0 0.00 0.14 0.13 80 1007.9
20260506110303 64 111 7.0 16.0 0.00 0.14 0.13 80 1007.9
20260506110203 63 111 7.0 16.0 0.00 0.14 0.13 80 1007.9
20260506110103 63 109 7.0 16.0 0.00 0.14 0.13 79 1007.9
20260506110004 63 110 7.0 16.0 0.00 0.14 0.13 79 1007.8
20260506105903 63 107 7.0 16.0 0.00 0.14 0.13 79 1007.9
20260506105803 63 108 7.0 16.0 0.00 0.14 0.13 79 1007.9
20260506105703 63 110 7.0 16.0 0.00 0.14 0.13 79 1007.9
20260506105603 64 110 7.0 15.0 0.00 0.14 0.13 79 1007.9
20260506105503 63 108 7.0 15.0 0.00 0.14 0.13 79 1007.9
20260506105403 63 109 7.0 15.0 0.00 0.14 0.13 79 1007.9
20260506105305 63 107 7.0 15.0 0.00 0.14 0.13 79 1007.9
20260506105203 64 105 7.0 15.0 0.00 0.14 0.13 79 1008.0
20260506105103 63 106 7.0 15.0 0.00 0.14 0.13 79 1008.0
20260506105003 64 107 7.0 16.0 0.00 0.14 0.13 79 1007.9
20260506104903 64 108 8.0 16.0 0.00 0.14 0.13 79 1007.9
20260506104803 64 109 8.0 16.0 0.00 0.14 0.13 79 1007.9
20260506104703 64 111 8.0 16.0 0.00 0.14 0.13 79 1007.8
20260506104603 64 113 8.0 16.0 0.00 0.14 0.13 79 1007.8
20260506104503 64 113 8.0 16.0 0.00 0.14 0.13 79 1007.9
20260506104403 64 112 8.0 16.0 0.00 0.14 0.13 79 1007.8
20260506104303 64 111 9.0 16.0 0.00 0.14 0.13 79 1007.8
20260506104203 64 112 9.0 16.0 0.00 0.14 0.13 79 1007.9
20260506104103 64 110 9.0 16.0 0.00 0.14 0.13 79 1007.8
20260506104003 64 109 8.0 15.0 0.00 0.14 0.13 79 1007.8
20260506103903 64 108 8.0 15.0 0.00 0.14 0.13 79 1007.9
20260506103803 64 105 9.0 17.0 0.00 0.14 0.13 79 1007.9
20260506103703 64 101 9.0 17.0 0.00 0.14 0.13 79 1007.9
20260506103603 64 98 8.0 17.0 0.00 0.14 0.13 79 1007.9
20260506103503 64 99 8.0 17.0 0.00 0.14 0.13 80 1007.9
20260506103403 64 101 9.0 17.0 0.00 0.14 0.13 80 1007.9
20260506103303 64 104 9.0 17.0 0.00 0.14 0.13 79 1007.9
20260506103203 64 105 9.0 17.0 0.00 0.14 0.13 80 1008.0
20260506103104 64 107 9.0 17.0 0.00 0.14 0.13 79 1007.9
20260506103003 64 107 10.0 17.0 0.00 0.14 0.13 79 1007.9
20260506102903 64 106 10.0 17.0 0.00 0.14 0.13 79 1007.9
20260506102804 64 107 9.0 17.0 0.00 0.14 0.13 80 1007.9
20260506102703 64 108 9.0 17.0 0.00 0.14 0.13 80 1007.9
20260506102603 64 110 8.0 17.0 0.00 0.14 0.13 80 1008.0
20260506102503 64 111 9.0 17.0 0.00 0.14 0.13 80 1008.0
20260506102404 64 112 9.0 17.0 0.00 0.14 0.13 80 1008.0
20260506102305 64 111 8.0 17.0 0.00 0.14 0.13 80 1008.0
20260506102203 64 109 8.0 17.0 0.00 0.14 0.13 80 1008.0
20260506102103 64 107 8.0 17.0 0.00 0.14 0.13 80 1007.9
20260506102003 64 105 7.0 17.0 0.00 0.14 0.13 81 1007.9
20260506101903 64 104 7.0 17.0 0.00 0.14 0.13 81 1007.9
20260506101803 64 107 8.0 17.0 0.00 0.14 0.13 81 1007.9
20260506101703 64 107 8.0 17.0 0.00 0.14 0.13 81 1007.9
20260506101603 63 107 8.0 17.0 0.00 0.14 0.13 80 1008.0
20260506101503 64 106 8.0 17.0 0.00 0.14 0.13 81 1008.0
20260506101403 64 102 8.0 16.0 0.00 0.14 0.13 81 1007.9
20260506101303 64 101 8.0 16.0 0.00 0.14 0.13 81 1007.9
20260506101203 64 99 8.0 15.0 0.00 0.14 0.13 82 1007.9
20260506101103 63 101 8.0 15.0 0.00 0.14 0.13 82 1007.9
20260506101003 63 103 9.0 15.0 0.00 0.14 0.13 82 1008.0
20260506100903 63 102 9.0 15.0 0.00 0.14 0.13 81 1008.0
20260506100803 63 99 9.0 15.0 0.00 0.14 0.13 82 1007.9
20260506100703 63 102 9.0 15.0 0.00 0.14 0.13 82 1007.9
20260506100603 63 102 9.0 15.0 0.00 0.14 0.13 82 1007.9
20260506100503 63 99 9.0 16.0 0.00 0.14 0.13 81 1007.8
20260506100403 63 99 9.0 16.0 0.00 0.14 0.13 81 1007.8
20260506100303 63 100 10.0 18.0 0.00 0.14 0.13 81 1008.0
20260506100203 63 101 9.0 18.0 0.00 0.14 0.13 81 1008.0
20260506100004 63 101 9.0 18.0 0.00 0.14 0.13 81 1007.9
20260506095903 63 102 10.0 18.0 0.00 0.14 0.13 81 1007.9
20260506095803 63 104 10.0 18.0 0.00 0.14 0.13 81 1007.9
20260506095703 63 102 9.0 18.0 0.00 0.14 0.13 81 1007.9
20260506095603 63 104 10.0 18.0 0.00 0.14 0.13 82 1007.9
20260506095503 63 105 10.0 18.0 0.00 0.14 0.13 82 1007.9
20260506095403 63 106 10.0 18.0 0.00 0.14 0.13 83 1007.9
20260506095305 63 108 10.0 18.0 0.00 0.14 0.13 83 1007.8
20260506095203 62 109 10.0 20.0 0.00 0.14 0.13 82 1007.8
20260506095103 62 109 10.0 20.0 0.00 0.14 0.13 83 1007.8
20260506095003 62 112 10.0 20.0 0.00 0.14 0.13 83 1007.8
20260506094903 62 113 10.0 21.0 0.00 0.14 0.13 83 1007.8
20260506094803 62 114 10.0 21.0 0.00 0.14 0.13 83 1007.9
20260506094704 62 114 10.0 21.0 0.00 0.14 0.13 83 1007.8
20260506094603 62 113 10.0 21.0 0.00 0.14 0.13 83 1007.8
20260506094503 62 113 9.0 21.0 0.00 0.14 0.13 84 1007.8
20260506094403 62 113 10.0 21.0 0.00 0.14 0.13 84 1007.8
20260506094303 62 110 9.0 21.0 0.00 0.14 0.13 84 1008.0
20260506094203 62 111 9.0 21.0 0.00 0.14 0.13 84 1008.0
20260506094103 62 110 9.0 21.0 0.00 0.14 0.13 84 1008.0
20260506094003 62 106 10.0 22.0 0.00 0.14 0.13 84 1008.1
20260506093903 62 105 10.0 22.0 0.00 0.14 0.13 85 1008.1
20260506093803 62 106 10.0 22.0 0.00 0.14 0.13 85 1007.9
20260506093703 61 105 11.0 22.0 0.00 0.14 0.13 85 1008.0
20260506093603 61 105 11.0 22.0 0.00 0.14 0.13 85 1008.0
20260506093503 61 104 11.0 22.0 0.00 0.14 0.13 85 1007.9
20260506093403 61 104 11.0 22.0 0.00 0.14 0.13 85 1007.9
20260506093303 61 103 11.0 22.0 0.00 0.14 0.13 86 1007.9
20260506093204 61 102 10.0 22.0 0.00 0.14 0.13 86 1007.8
20260506093103 61 104 11.0 22.0 0.00 0.14 0.13 86 1007.8
20260506093003 61 106 10.0 19.0 0.00 0.14 0.13 86 1007.8
20260506092903 61 107 10.0 19.0 0.00 0.14 0.13 86 1007.8
20260506092803 61 105 10.0 19.0 0.00 0.14 0.13 87 1007.8
20260506092703 61 107 9.0 17.0 0.00 0.14 0.13 87 1007.7
20260506092603 61 111 9.0 19.0 0.00 0.14 0.13 87 1007.7
20260506092503 61 112 9.0 19.0 0.01 0.14 0.13 87 1007.7
20260506092403 60 115 9.0 19.0 0.01 0.14 0.13 87 1007.8
20260506092305 60 117 10.0 19.0 0.01 0.14 0.13 87 1007.8
20260506092203 60 119 10.0 22.0 0.01 0.14 0.13 87 1007.8
20260506092103 60 118 10.0 22.0 0.01 0.14 0.13 87 1007.7
20260506092003 60 119 11.0 22.0 0.02 0.14 0.13 88 1007.7
20260506091903 60 119 11.0 22.0 0.02 0.14 0.13 88 1007.8
20260506091803 60 120 11.0 22.0 0.02 0.14 0.13 88 1007.8
20260506091703 60 118 11.0 22.0 0.02 0.14 0.13 88 1007.8
20260506091603 60 116 11.0 22.0 0.02 0.14 0.13 88 1007.8
20260506091503 60 116 11.0 22.0 0.02 0.14 0.13 88 1007.8
20260506091403 60 113 11.0 22.0 0.02 0.14 0.13 88 1007.9
20260506091303 60 112 11.0 22.0 0.03 0.14 0.13 88 1007.9
20260506091203 60 110 11.0 19.0 0.03 0.14 0.13 88 1007.8
20260506091103 60 108 10.0 18.0 0.03 0.14 0.13 88 1007.6
20260506091003 60 108 10.0 18.0 0.03 0.14 0.13 89 1007.6
20260506090903 60 108 10.0 18.0 0.03 0.14 0.13 89 1007.6
20260506090803 60 108 10.0 17.0 0.03 0.14 0.13 89 1007.6
20260506090703 59 108 10.0 18.0 0.03 0.14 0.13 89 1007.6
20260506090603 59 109 11.0 18.0 0.04 0.14 0.13 89 1007.6
20260506090503 59 109 11.0 18.0 0.04 0.14 0.13 89 1007.6
20260506090403 59 110 11.0 18.0 0.04 0.14 0.13 89 1007.7
20260506090303 59 110 10.0 18.0 0.04 0.14 0.13 89 1007.7
20260506090203 59 111 10.0 18.0 0.05 0.14 0.13 89 1007.7
20260506090004 59 109 10.0 18.0 0.05 0.14 0.13 89 1007.7
20260506085903 59 108 10.0 18.0 0.05 0.14 0.13 89 1007.8
20260506085803 59 109 9.0 18.0 0.05 0.14 0.13 90 1007.7
20260506085703 59 110 9.0 17.0 0.05 0.14 0.13 90 1007.7
20260506085603 59 109 8.0 17.0 0.06 0.14 0.13 90 1007.7
20260506085503 59 108 8.0 17.0 0.06 0.14 0.13 90 1007.7
20260506085403 59 110 8.0 17.0 0.06 0.14 0.13 90 1007.8
20260506085305 59 110 8.0 17.0 0.06 0.14 0.13 90 1007.8
20260506085203 59 109 9.0 18.0 0.06 0.14 0.13 90 1007.8
20260506085103 59 109 9.0 18.0 0.06 0.14 0.13 90 1007.7
20260506085003 58 111 9.0 18.0 0.06 0.14 0.13 90 1007.7
20260506084903 58 112 9.0 18.0 0.06 0.14 0.13 90 1007.8
20260506084804 58 113 9.0 18.0 0.06 0.14 0.13 90 1007.7
20260506084703 58 112 9.0 20.0 0.06 0.14 0.13 90 1007.7
20260506084603 58 115 9.0 20.0 0.07 0.14 0.13 90 1007.8
20260506084503 58 117 10.0 20.0 0.07 0.14 0.13 90 1007.8
20260506084403 58 118 10.0 20.0 0.07 0.14 0.13 90 1007.8
20260506084303 58 117 10.0 20.0 0.07 0.14 0.13 90 1007.6
20260506084203 57 116 11.0 20.0 0.08 0.14 0.13 90 1007.6
20260506084103 57 112 11.0 20.0 0.08 0.14 0.13 90 1007.5
20260506084003 57 108 11.0 21.0 0.08 0.14 0.13 90 1007.5
20260506083903 57 104 12.0 21.0 0.08 0.14 0.13 90 1007.5
20260506083803 57 100 12.0 21.0 0.08 0.14 0.13 90 1007.5
20260506083703 57 96 12.0 21.0 0.08 0.14 0.13 90 1007.5
20260506083603 57 93 12.0 21.0 0.09 0.14 0.13 90 1007.1
20260506083503 57 91 12.0 21.0 0.09 0.14 0.13 90 1006.8
20260506083403 57 87 12.0 21.0 0.09 0.14 0.13 90 1006.8
20260506083303 57 87 12.0 21.0 0.09 0.14 0.13 90 1006.7
20260506083203 57 87 13.0 25.0 0.09 0.14 0.13 90 1006.9
20260506083103 57 89 13.0 27.0 0.09 0.14 0.13 90 1006.9
20260506083003 57 88 13.0 27.0 0.09 0.14 0.13 90 1007.0
20260506082903 57 89 13.0 27.0 0.09 0.14 0.13 90 1007.0
20260506082803 57 89 14.0 27.0 0.09 0.14 0.13 90 1007.0
20260506082703 57 89 14.0 27.0 0.09 0.14 0.13 90 1006.9
20260506082603 57 89 15.0 27.0 0.09 0.14 0.13 90 1006.9
20260506082503 57 88 15.0 27.0 0.09 0.13 0.12 90 1006.9
20260506082403 57 87 15.0 27.0 0.09 0.13 0.12 90 1006.9
20260506082305 57 87 15.0 27.0 0.09 0.13 0.12 90 1006.8
20260506082203 57 87 14.0 27.0 0.09 0.13 0.12 90 1006.9
20260506082103 57 88 14.0 25.0 0.09 0.13 0.12 90 1006.9
20260506082003 57 91 13.0 25.0 0.09 0.13 0.11 89 1007.0
20260506081903 57 91 12.0 25.0 0.09 0.13 0.11 89 1007.0
20260506081803 57 93 11.0 21.0 0.09 0.13 0.11 89 1007.2
20260506081703 57 95 10.0 19.0 0.09 0.13 0.11 89 1007.5
20260506081603 57 96 9.0 19.0 0.08 0.12 0.10 89 1007.5
20260506081503 57 98 9.0 17.0 0.08 0.12 0.10 89 1007.7
20260506081403 57 100 8.0 17.0 0.08 0.12 0.10 89 1007.9
20260506081303 57 100 8.0 17.0 0.07 0.11 0.09 89 1007.9
20260506081203 57 100 8.0 17.0 0.07 0.11 0.09 89 1008.0
20260506081103 57 99 8.0 17.0 0.07 0.11 0.09 89 1008.0
20260506081003 57 95 8.0 17.0 0.07 0.11 0.09 89 1008.0
20260506080903 57 94 8.0 18.0 0.07 0.11 0.09 89 1008.0
20260506080804 57 90 8.0 18.0 0.07 0.11 0.09 89 1008.0
20260506080703 57 88 9.0 18.0 0.07 0.11 0.09 89 1008.0
20260506080603 57 88 9.0 18.0 0.06 0.10 0.09 89 1008.0
20260506080503 57 88 9.0 18.0 0.06 0.10 0.09 89 1008.0
20260506080403 57 87 9.0 18.0 0.06 0.10 0.09 89 1007.9
20260506080303 57 87 9.0 18.0 0.06 0.10 0.09 89 1007.9
20260506080203 57 85 9.0 18.0 0.06 0.09 0.08 89 1008.0
20260506073503 57 113 6.0 12.0 0.02 0.06 0.04 89 1008.4
20260506073403 57 112 6.0 12.0 0.02 0.06 0.04 89 1008.5
20260506073303 57 110 7.0 12.0 0.02 0.06 0.04 89 1008.5
20260506073203 57 108 7.0 12.0 0.02 0.06 0.04 89 1008.5
20260506073103 57 103 7.0 14.0 0.01 0.05 0.03 89 1008.5
20260506073003 57 101 7.0 14.0 0.01 0.05 0.03 90 1008.5
20260506072903 57 99 7.0 14.0 0.01 0.05 0.03 90 1008.5
20260506072803 57 97 7.0 14.0 0.01 0.05 0.03 90 1008.4
20260506072703 57 95 7.0 14.0 0.01 0.05 0.03 90 1008.4
20260506072603 57 93 7.0 14.0 0.01 0.05 0.03 90 1008.4
20260506072504 57 92 7.0 14.0 0.00 0.04 0.02 90 1008.4
20260506072403 57 91 7.0 14.0 0.00 0.04 0.02 90 1008.4
20260506072305 57 88 7.0 14.0 0.00 0.04 0.02 90 1008.2
20260506072203 57 87 7.0 14.0 0.00 0.04 0.02 90 1008.2
20260506072103 57 89 7.0 13.0 0.00 0.04 0.02 90 1008.2
20260506072003 57 89 7.0 14.0 0.00 0.04 0.02 90 1008.2
20260506071903 57 90 7.0 14.0 0.00 0.04 0.02 90 1008.2
20260506071803 57 89 7.0 14.0 0.00 0.04 0.02 90 1008.1
20260506071703 57 90 7.0 14.0 0.00 0.04 0.02 90 1008.1
20260506071604 57 92 7.0 14.0 0.00 0.04 0.02 90 1008.2
20260506071503 57 94 7.0 14.0 0.00 0.04 0.02 90 1008.2
20260506071403 57 95 7.0 14.0 0.00 0.04 0.02 90 1008.2
20260506071303 57 95 7.0 14.0 0.00 0.04 0.02 90 1008.2
20260506071203 57 95 7.0 14.0 0.00 0.04 0.02 90 1008.2
20260506071103 57 94 7.0 14.0 0.00 0.04 0.02 90 1008.4
20260506071003 57 93 7.0 14.0 0.00 0.04 0.02 90 1008.4
20260506070903 57 92 7.0 14.0 0.00 0.04 0.02 90 1008.4
20260506070803 57 93 8.0 14.0 0.00 0.04 0.02 90 1008.3
20260506070703 57 92 8.0 14.0 0.00 0.04 0.02 90 1008.2
20260506070603 57 90 8.0 14.0 0.00 0.04 0.02 90 1008.2
20260506070503 57 87 7.0 13.0 0.00 0.04 0.02 90 1008.2
20260506070403 57 84 7.0 13.0 0.00 0.04 0.02 90 1008.2
20260506070303 57 84 7.0 17.0 0.00 0.04 0.02 90 1008.1
20260506070203 57 83 8.0 17.0 0.00 0.04 0.02 90 1008.1
20260506070103 57 82 8.0 17.0 0.00 0.04 0.02 90 1008.1
20260506062503 57 88 8.0 15.0 0.00 0.05 0.02 91 1008.1
20260506062403 57 88 8.0 15.0 0.00 0.05 0.02 91 1008.2
20260506062305 57 88 7.0 15.0 0.00 0.05 0.02 91 1008.2
20260506062203 57 87 7.0 15.0 0.00 0.05 0.02 91 1008.1
20260506062103 57 87 7.0 15.0 0.00 0.05 0.02 91 1008.1
20260506062003 57 88 7.0 15.0 0.00 0.05 0.02 91 1008.1
20260506061903 57 91 7.0 13.0 0.00 0.05 0.02 91 1008.2
20260506061803 57 93 7.0 13.0 0.00 0.05 0.02 91 1008.3
20260506061703 57 94 7.0 12.0 0.00 0.05 0.02 91 1008.3
20260506061603 57 94 7.0 12.0 0.00 0.05 0.02 91 1008.3
20260506061503 57 95 7.0 12.0 0.00 0.05 0.02 91 1008.3
20260506061403 56 97 7.0 12.0 0.00 0.05 0.02 91 1008.2
20260506061303 57 101 7.0 12.0 0.00 0.05 0.02 91 1008.4
20260506061203 57 106 7.0 12.0 0.00 0.05 0.02 91 1008.4
20260506061103 57 106 7.0 12.0 0.00 0.05 0.02 91 1008.4
20260506061003 57 108 7.0 12.0 0.00 0.05 0.02 91 1008.4
20260506060903 57 107 7.0 12.0 0.00 0.05 0.02 91 1008.4
20260506060803 57 106 7.0 12.0 0.00 0.05 0.02 91 1008.4
20260506060703 56 108 7.0 12.0 0.00 0.05 0.02 91 1008.4
20260506060603 56 110 7.0 12.0 0.00 0.05 0.02 91 1008.3
20260506060503 57 110 7.0 12.0 0.00 0.05 0.02 91 1008.4
20260506060403 57 109 6.0 12.0 0.00 0.05 0.02 91 1008.4
20260506060303 57 104 6.0 12.0 0.00 0.05 0.02 91 1008.4
20260506060203 57 102 6.0 12.0 0.00 0.05 0.02 91 1008.4
20260506051403 57 86 6.0 13.0 0.00 0.07 0.02 91 1008.3
20260506051303 57 87 7.0 13.0 0.00 0.07 0.02 91 1008.3
20260506051203 57 87 7.0 13.0 0.00 0.07 0.02 91 1008.3
20260506051103 57 87 7.0 13.0 0.00 0.07 0.02 91 1008.3
20260506051003 57 86 7.0 13.0 0.00 0.07 0.02 91 1008.3
20260506050903 57 86 7.0 13.0 0.00 0.07 0.02 91 1008.2
20260506050803 57 85 6.0 13.0 0.00 0.07 0.02 91 1008.2
20260506050703 57 85 7.0 13.0 0.00 0.07 0.02 91 1008.2
20260506050603 57 85 7.0 13.0 0.00 0.07 0.02 91 1008.2
20260506050503 57 84 7.0 13.0 0.01 0.07 0.02 91 1008.2
20260506050403 57 85 6.0 12.0 0.01 0.07 0.02 91 1008.3
20260506050303 57 84 7.0 12.0 0.01 0.07 0.02 91 1008.3
20260506050203 57 83 6.0 12.0 0.01 0.07 0.02 91 1008.3
20260506050103 57 84 6.0 12.0 0.01 0.07 0.02 91 1008.3
20260506045103 57 95 4.0 8.0 0.02 0.07 0.02 91 1008.7
20260506045003 57 94 4.0 8.0 0.02 0.07 0.02 91 1008.7
20260506044903 57 94 4.0 9.0 0.02 0.07 0.02 91 1008.6
20260506044803 57 92 4.0 9.0 0.02 0.07 0.02 91 1008.7
20260506044703 57 92 4.0 9.0 0.02 0.07 0.02 91 1008.7
20260506044603 57 92 4.0 9.0 0.02 0.07 0.02 91 1008.7
20260506044503 57 93 4.0 9.0 0.02 0.07 0.02 91 1008.7
20260506044403 57 94 5.0 11.0 0.02 0.07 0.02 91 1008.8
20260506044303 57 92 5.0 11.0 0.02 0.07 0.02 91 1008.8
20260506044203 57 92 5.0 11.0 0.02 0.07 0.02 90 1008.8
20260506044103 57 91 5.0 11.0 0.02 0.07 0.02 91 1008.7
20260506044003 57 91 5.0 11.0 0.02 0.07 0.02 90 1008.6
20260506043903 57 93 5.0 11.0 0.02 0.07 0.02 91 1008.6
20260506043803 57 94 4.0 11.0 0.02 0.07 0.02 91 1008.8
20260506043703 56 94 5.0 11.0 0.02 0.07 0.02 91 1008.8
20260506043603 56 95 5.0 11.0 0.02 0.07 0.02 91 1008.8
20260506043503 56 95 5.0 11.0 0.02 0.07 0.02 91 1008.8
20260506043403 56 94 5.0 11.0 0.02 0.07 0.02 91 1008.8
20260506043303 56 98 4.0 9.0 0.02 0.07 0.02 91 1008.9
20260506043203 56 97 4.0 10.0 0.02 0.07 0.02 91 1008.9
20260506043103 56 98 4.0 10.0 0.02 0.07 0.02 90 1009.0
20260506043003 56 101 4.0 10.0 0.02 0.07 0.02 91 1009.0
20260506042903 56 102 4.0 10.0 0.02 0.07 0.02 91 1009.0
20260506042803 56 106 4.0 10.0 0.02 0.07 0.02 90 1009.1
20260506042703 56 107 4.0 10.0 0.02 0.07 0.02 90 1009.1
20260506042603 56 108 4.0 10.0 0.02 0.07 0.02 90 1009.1
20260506042503 56 108 4.0 10.0 0.02 0.07 0.02 90 1009.1
20260506042403 56 110 4.0 10.0 0.02 0.07 0.02 90 1009.1
20260506042305 56 109 4.0 10.0 0.02 0.07 0.02 90 1009.1
20260506042203 56 108 3.0 9.0 0.02 0.07 0.02 90 1009.1
20260506042103 56 107 4.0 9.0 0.02 0.07 0.02 90 1009.1
20260506042003 56 105 4.0 9.0 0.02 0.07 0.02 90 1009.2
20260506041903 56 103 4.0 10.0 0.02 0.07 0.02 90 1009.2
20260506041803 56 100 4.0 10.0 0.02 0.07 0.02 90 1009.1
20260506041703 56 99 4.0 10.0 0.02 0.07 0.02 90 1009.1
20260506041603 56 98 5.0 10.0 0.02 0.07 0.02 90 1009.1
20260506041503 56 97 4.0 10.0 0.02 0.07 0.02 90 1009.1
20260506041403 57 97 4.0 10.0 0.02 0.07 0.02 90 1009.1
20260506041303 56 98 4.0 10.0 0.02 0.07 0.02 90 1009.1
20260506041203 56 99 4.0 10.0 0.02 0.07 0.02 90 1009.2
20260506041103 56 98 4.0 10.0 0.02 0.07 0.02 90 1009.2
20260506041003 56 99 4.0 10.0 0.02 0.07 0.02 90 1009.1
20260506040903 56 98 4.0 10.0 0.02 0.07 0.02 90 1009.3
20260506040803 57 100 4.0 9.0 0.02 0.07 0.02 90 1009.3
20260506040703 56 99 3.0 9.0 0.02 0.07 0.02 90 1009.3
20260506040603 57 101 3.0 9.0 0.02 0.07 0.02 90 1009.3
20260506040503 57 101 3.0 9.0 0.02 0.06 0.02 90 1009.3
20260506040403 57 101 3.0 9.0 0.02 0.06 0.02 90 1009.4
20260506040303 57 99 3.0 9.0 0.02 0.06 0.02 90 1009.4
20260506040203 57 100 3.0 9.0 0.02 0.06 0.02 90 1009.4
20260506040004 57 105 4.0 8.0 0.02 0.06 0.02 90 1009.3
20260506035903 57 109 4.0 8.0 0.01 0.06 0.01 90 1009.3
20260506035803 57 109 4.0 8.0 0.01 0.06 0.01 90 1009.3
20260506035703 57 114 4.0 8.0 0.01 0.06 0.01 90 1009.4
20260506035603 57 114 4.0 8.0 0.01 0.06 0.01 90 1009.4
20260506035503 56 117 4.0 8.0 0.01 0.06 0.01 90 1009.4
20260506035403 57 119 4.0 8.0 0.01 0.06 0.01 90 1009.4
20260506035305 57 121 4.0 8.0 0.01 0.06 0.01 90 1009.4
20260506035203 57 121 4.0 8.0 0.00 0.05 0.00 90 1009.5
20260506035103 57 123 4.0 8.0 0.00 0.05 0.00 90 1009.5
20260506035004 57 122 4.0 8.0 0.00 0.05 0.00 90 1009.5
20260506034903 56 121 4.0 8.0 0.00 0.05 0.00 90 1009.6
20260506034803 56 121 4.0 8.0 0.00 0.05 0.00 90 1009.6
20260506034703 56 120 4.0 8.0 0.00 0.05 0.00 90 1009.6
20260506034603 56 122 4.0 8.0 0.00 0.05 0.00 90 1009.5
20260506034503 56 122 4.0 8.0 0.00 0.05 0.00 90 1009.5
20260506034403 57 122 4.0 8.0 0.00 0.05 0.00 90 1009.6
20260506034303 56 122 4.0 8.0 0.00 0.05 0.00 90 1009.6
20260506034203 56 122 4.0 8.0 0.00 0.05 0.00 90 1009.5
20260506034103 56 121 4.0 8.0 0.00 0.05 0.00 90 1009.5
20260506034003 56 122 4.0 8.0 0.00 0.05 0.00 90 1009.5
20260506033903 56 123 3.0 8.0 0.00 0.05 0.00 90 1009.5
20260506033803 57 123 3.0 8.0 0.00 0.05 0.00 90 1009.5
20260506033703 56 124 3.0 7.0 0.00 0.05 0.00 90 1009.6
20260506033603 56 124 3.0 7.0 0.00 0.05 0.00 90 1009.5
20260506033504 56 124 2.0 7.0 0.00 0.05 0.00 90 1009.5
20260506033403 56 123 2.0 7.0 0.00 0.05 0.00 90 1009.4
20260506033303 56 123 2.0 7.0 0.00 0.05 0.00 90 1009.4
20260506033203 57 122 2.0 6.0 0.00 0.05 0.00 90 1009.4
20260506033103 56 120 2.0 4.0 0.00 0.05 0.00 90 1009.4
20260506033004 57 119 2.0 4.0 0.00 0.05 0.00 90 1009.4
20260506032903 56 115 2.0 4.0 0.00 0.05 0.00 90 1009.4
20260506032803 56 113 2.0 4.0 0.00 0.05 0.00 90 1009.4
20260506032703 57 106 2.0 5.0 0.00 0.05 0.00 90 1009.4
20260506032603 57 104 2.0 5.0 0.00 0.05 0.00 90 1009.3
20260506032503 57 104 2.0 5.0 0.00 0.05 0.00 90 1009.3
20260506032403 57 102 2.0 5.0 0.00 0.05 0.00 90 1009.4
20260506032305 56 100 2.0 5.0 0.00 0.05 0.00 90 1009.4
20260506032203 57 99 2.0 5.0 0.00 0.05 0.00 90 1009.4
20260506032103 56 100 2.0 5.0 0.00 0.05 0.00 90 1009.4
20260506032003 56 101 2.0 5.0 0.00 0.05 0.00 90 1009.4
20260506031903 56 98 2.0 5.0 0.00 0.05 0.00 90 1009.4
20260506031803 57 98 2.0 5.0 0.00 0.05 0.00 90 1009.5
20260506031703 57 100 2.0 7.0 0.00 0.05 0.00 90 1009.5
20260506031603 56 97 2.0 7.0 0.00 0.05 0.00 90 1009.5
20260506031503 56 97 3.0 7.0 0.00 0.05 0.00 90 1009.4
20260506031403 56 96 3.0 7.0 0.00 0.05 0.00 90 1009.4
20260506031303 57 96 3.0 7.0 0.00 0.05 0.00 90 1009.3
20260506031203 56 93 3.0 7.0 0.00 0.05 0.00 90 1009.3
20260506031103 56 93 3.0 7.0 0.00 0.05 0.00 90 1009.3
20260506031003 56 91 3.0 8.0 0.00 0.05 0.00 90 1009.3
20260506030903 57 92 3.0 8.0 0.00 0.05 0.00 90 1009.3
20260506030803 57 90 3.0 8.0 0.00 0.05 0.00 90 1009.4
20260506030703 56 89 3.0 8.0 0.00 0.05 0.00 90 1009.4
20260506030603 56 89 4.0 8.0 0.00 0.05 0.00 90 1009.5
20260506030503 56 89 4.0 8.0 0.00 0.05 0.00 90 1009.6
20260506030403 56 89 4.0 8.0 0.00 0.05 0.00 90 1009.6
20260506030303 56 88 4.0 8.0 0.00 0.05 0.00 90 1009.5
20260506030203 56 90 4.0 8.0 0.00 0.05 0.00 90 1009.6
20260506030103 56 90 3.0 8.0 0.00 0.05 0.00 90 1009.6
20260506030004 56 91 3.0 8.0 0.00 0.05 0.00 90 1009.6
20260506025903 57 91 3.0 8.0 0.00 0.05 0.00 90 1009.6
20260506025803 56 93 3.0 8.0 0.00 0.05 0.00 90 1009.6
20260506025703 56 91 3.0 8.0 0.00 0.05 0.00 90 1009.7
20260506025603 56 92 3.0 8.0 0.00 0.05 0.00 90 1009.7
20260506025503 56 91 2.0 7.0 0.00 0.05 0.00 90 1009.8
20260506025403 57 91 3.0 7.0 0.00 0.05 0.00 90 1009.8
20260506025305 56 90 3.0 7.0 0.00 0.05 0.00 90 1009.9
20260506025203 56 89 3.0 7.0 0.00 0.05 0.00 90 1009.9
20260506025103 56 91 3.0 7.0 0.00 0.05 0.00 90 1009.9
20260506025003 56 95 3.0 7.0 0.00 0.05 0.00 90 1009.8
20260506024903 56 97 3.0 7.0 0.00 0.05 0.00 90 1009.8
20260506024803 56 99 3.0 7.0 0.00 0.05 0.00 90 1009.8
20260506024703 56 105 3.0 7.0 0.00 0.05 0.00 90 1009.9
20260506024603 56 108 3.0 7.0 0.00 0.05 0.00 90 1009.9
20260506024503 56 114 3.0 7.0 0.00 0.05 0.00 90 1010.0
20260506024403 57 121 3.0 6.0 0.00 0.05 0.00 90 1010.2
20260506024303 57 125 3.0 7.0 0.00 0.05 0.00 90 1010.2
20260506024203 56 127 3.0 7.0 0.00 0.05 0.00 90 1010.3
20260506024103 56 127 3.0 7.0 0.00 0.05 0.00 90 1010.3
20260506024003 56 127 3.0 7.0 0.00 0.05 0.00 90 1010.4
20260506023904 56 127 3.0 7.0 0.00 0.05 0.00 90 1010.4
20260506023803 56 127 3.0 8.0 0.00 0.05 0.00 90 1010.4
20260506023703 56 127 3.0 8.0 0.00 0.05 0.00 90 1010.5
20260506023603 56 127 3.0 8.0 0.00 0.05 0.00 90 1010.5
20260506023503 56 126 4.0 8.0 0.00 0.05 0.00 90 1010.4
20260506023403 56 125 3.0 8.0 0.00 0.05 0.00 90 1010.4
20260506023303 56 125 3.0 8.0 0.00 0.05 0.00 90 1010.4
20260506023203 57 125 3.0 8.0 0.00 0.05 0.00 90 1010.4
20260506023103 56 124 3.0 8.0 0.00 0.05 0.00 90 1010.4
20260506023003 56 124 3.0 8.0 0.00 0.05 0.00 90 1010.4
20260506022903 56 124 3.0 8.0 0.00 0.05 0.00 90 1010.3
20260506022803 56 120 3.0 8.0 0.00 0.05 0.00 90 1010.3
20260506022703 57 115 3.0 8.0 0.00 0.05 0.00 90 1010.3
20260506022603 57 114 3.0 8.0 0.00 0.05 0.00 90 1010.4
20260506022503 57 113 3.0 8.0 0.00 0.05 0.00 90 1010.4
20260506022403 57 109 3.0 8.0 0.00 0.05 0.00 90 1010.5
20260506022305 57 109 3.0 8.0 0.00 0.05 0.00 90 1010.5
20260506022203 57 106 3.0 8.0 0.00 0.05 0.00 90 1010.5
20260506022103 57 105 3.0 7.0 0.00 0.05 0.00 90 1010.4
20260506022003 57 105 3.0 7.0 0.00 0.05 0.00 90 1010.4
20260506021903 57 107 3.0 7.0 0.00 0.05 0.00 90 1010.3
20260506021803 57 110 3.0 7.0 0.00 0.05 0.00 90 1010.3
20260506021703 57 116 2.0 6.0 0.00 0.05 0.00 90 1010.4
20260506021603 57 117 2.0 6.0 0.00 0.05 0.00 90 1010.4
20260506021503 57 118 2.0 6.0 0.00 0.05 0.00 90 1010.4
20260506021403 57 122 2.0 6.0 0.00 0.05 0.00 90 1010.5
20260506021303 57 122 3.0 7.0 0.00 0.05 0.00 90 1010.6
20260506021203 57 123 3.0 7.0 0.00 0.05 0.00 90 1010.6
20260506021103 57 121 3.0 7.0 0.00 0.05 0.00 90 1010.6
20260506021003 57 118 3.0 7.0 0.00 0.05 0.00 90 1010.6
20260506020903 57 118 2.0 7.0 0.00 0.05 0.00 90 1010.6
20260506020803 57 118 2.0 7.0 0.00 0.05 0.00 90 1010.5
20260506020703 57 117 2.0 7.0 0.00 0.05 0.00 90 1010.5
20260506020603 57 117 2.0 7.0 0.00 0.05 0.00 90 1010.5
20260506020503 57 115 2.0 7.0 0.00 0.05 0.00 90 1010.5
20260506020403 57 114 2.0 7.0 0.00 0.05 0.00 90 1010.5
20260506020303 57 112 2.0 5.0 0.00 0.05 0.00 90 1010.5
20260506020203 57 112 2.0 5.0 0.00 0.05 0.00 90 1010.5
20260506020103 57 115 2.0 5.0 0.00 0.05 0.00 90 1010.5
20260506020004 57 119 1.0 4.0 0.00 0.05 0.00 90 1010.5
20260506015903 57 119 2.0 4.0 0.00 0.05 0.00 90 1010.5
20260506015803 57 118 2.0 4.0 0.00 0.05 0.00 90 1010.6
20260506015703 57 120 2.0 3.0 0.00 0.05 0.00 90 1010.6
20260506015603 57 120 1.0 3.0 0.00 0.05 0.00 90 1010.5
20260506015503 57 123 1.0 3.0 0.00 0.05 0.00 90 1010.6
20260506015403 57 125 1.0 3.0 0.00 0.05 0.00 90 1010.6
20260506015305 57 125 1.0 3.0 0.00 0.05 0.00 90 1010.6
20260506015203 57 127 1.0 3.0 0.00 0.05 0.00 90 1010.6
20260506015103 57 127 1.0 3.0 0.00 0.05 0.00 90 1010.6
20260506015003 57 129 1.0 3.0 0.00 0.05 0.00 90 1010.6
20260506014903 57 134 1.0 3.0 0.00 0.05 0.00 90 1010.6
20260506014803 57 135 1.0 3.0 0.00 0.05 0.00 90 1010.6
20260506014703 57 136 1.0 3.0 0.00 0.05 0.00 90 1010.6
20260506014603 57 137 1.0 3.0 0.00 0.05 0.00 90 1010.7
20260506014503 57 135 1.0 3.0 0.00 0.05 0.00 90 1010.6
20260506014403 57 133 2.0 3.0 0.00 0.05 0.00 90 1010.6
20260506014303 57 132 2.0 3.0 0.00 0.05 0.00 90 1010.6
20260506014203 57 131 2.0 3.0 0.00 0.05 0.00 90 1010.6
20260506014103 57 131 2.0 3.0 0.00 0.05 0.00 90 1010.6
20260506014003 57 130 2.0 3.0 0.00 0.05 0.00 90 1010.7
20260506013903 57 125 2.0 3.0 0.00 0.05 0.00 90 1010.7
20260506013803 57 124 2.0 3.0 0.00 0.05 0.00 90 1010.6
20260506013703 57 123 1.0 3.0 0.00 0.05 0.00 90 1010.5
20260506013603 57 120 1.0 3.0 0.00 0.05 0.00 90 1010.5
20260506013503 57 123 1.0 3.0 0.00 0.05 0.00 90 1010.5
20260506013403 57 126 1.0 3.0 0.00 0.05 0.00 90 1010.5
20260506013303 57 128 1.0 3.0 0.00 0.05 0.00 90 1010.5
20260506013203 57 131 1.0 3.0 0.00 0.05 0.00 90 1010.5
20260506013103 57 132 1.0 3.0 0.00 0.05 0.00 90 1010.5
20260506013003 57 131 1.0 3.0 0.00 0.05 0.00 90 1010.5
20260506012904 57 135 1.0 2.0 0.00 0.05 0.00 90 1010.5
20260506012803 57 134 1.0 2.0 0.00 0.05 0.00 90 1010.5
20260506012703 57 133 1.0 2.0 0.00 0.05 0.00 90 1010.6
20260506012603 57 132 1.0 2.0 0.00 0.05 0.00 90 1010.6
20260506012503 57 130 1.0 2.0 0.00 0.05 0.00 90 1010.6
20260506012403 57 126 0.0 2.0 0.00 0.05 0.00 90 1010.6
20260506012307 57 120 0.0 2.0 0.00 0.05 0.00 90 1010.6
20260506012204 57 121 1.0 2.0 0.00 0.05 0.00 90 1010.6
20260506012103 57 120 0.0 2.0 0.00 0.05 0.00 90 1010.6
20260506012003 57 130 0.0 2.0 0.00 0.05 0.00 90 1010.7
20260506011903 57 125 1.0 2.0 0.00 0.05 0.00 90 1010.6
20260506011803 57 120 1.0 2.0 0.00 0.05 0.00 90 1010.6
20260506011703 57 118 1.0 2.0 0.00 0.05 0.00 90 1010.7
20260506011603 57 118 1.0 2.0 0.00 0.05 0.00 90 1010.7
20260506011503 57 115 1.0 2.0 0.00 0.05 0.00 90 1010.6
20260506011403 57 109 1.0 2.0 0.00 0.05 0.00 90 1010.7
20260506011303 57 107 1.0 2.0 0.00 0.05 0.00 90 1010.7
20260506011203 57 104 1.0 2.0 0.00 0.05 0.00 90 1010.7
20260506011103 57 102 1.0 2.0 0.00 0.05 0.00 90 1010.7
20260506011003 57 94 1.0 2.0 0.00 0.05 0.00 90 1010.6
20260506010903 57 93 1.0 2.0 0.00 0.05 0.00 90 1010.6
20260506010803 57 90 0.0 2.0 0.00 0.05 0.00 90 1010.6
20260506010703 57 88 0.0 2.0 0.00 0.05 0.00 90 1010.5
20260506010603 57 86 0.0 2.0 0.00 0.05 0.00 90 1010.5
20260506010503 57 86 0.0 2.0 0.00 0.05 0.00 90 1010.5
20260506010403 57 85 0.0 3.0 0.00 0.05 0.00 90 1010.5
20260506010303 57 89 0.0 3.0 0.00 0.05 0.00 90 1010.5
20260506010203 57 102 0.0 3.0 0.00 0.05 0.00 90 1010.5
20260506010103 57 108 1.0 4.0 0.00 0.05 0.00 90 1010.5
20260506010004 57 108 1.0 6.0 0.00 0.05 0.00 90 1010.5
20260506005903 57 110 1.0 6.0 0.00 0.05 0.00 90 1010.4
20260506005803 57 111 1.0 6.0 0.00 0.05 0.00 90 1010.4
20260506005703 57 111 1.0 6.0 0.00 0.05 0.00 90 1010.6
20260506005603 57 111 1.0 6.0 0.00 0.05 0.00 90 1010.6
20260506005503 57 107 1.0 6.0 0.00 0.05 0.00 90 1010.6
20260506005404 57 103 2.0 6.0 0.00 0.05 0.00 90 1010.6
20260506005305 57 101 2.0 6.0 0.00 0.05 0.00 90 1010.6
20260506005203 57 99 2.0 6.0 0.00 0.05 0.00 90 1010.6
20260506005103 57 95 2.0 6.0 0.00 0.05 0.00 90 1010.7
20260506005003 57 92 2.0 4.0 0.00 0.05 0.00 90 1010.7
20260506004903 57 89 2.0 5.0 0.00 0.05 0.00 90 1010.7
20260506004803 57 88 2.0 6.0 0.00 0.05 0.00 90 1010.6
20260506004703 57 89 2.0 6.0 0.00 0.05 0.00 90 1010.6
20260506004604 57 90 2.0 6.0 0.00 0.05 0.00 90 1010.7
20260506004504 57 91 3.0 6.0 0.00 0.05 0.00 90 1010.7
20260506004403 57 93 3.0 6.0 0.00 0.05 0.00 90 1010.7
20260506004304 57 93 3.0 6.0 0.00 0.05 0.00 90 1010.7
20260506004203 57 92 3.0 7.0 0.00 0.05 0.00 90 1010.7
20260506004103 57 92 3.0 7.0 0.00 0.05 0.00 90 1010.8
20260506004003 57 92 3.0 7.0 0.00 0.05 0.00 90 1010.8
20260506003903 57 92 3.0 7.0 0.00 0.05 0.00 90 1010.9
20260506003803 57 91 3.0 7.0 0.00 0.05 0.00 90 1011.0
20260506003703 57 89 3.0 7.0 0.00 0.05 0.00 90 1011.0
20260506003603 57 88 3.0 7.0 0.00 0.05 0.00 90 1011.0
20260506003503 57 90 3.0 7.0 0.00 0.05 0.00 90 1011.0
20260506003403 57 91 3.0 7.0 0.00 0.05 0.00 90 1011.0
20260506003303 57 90 2.0 7.0 0.00 0.05 0.00 90 1011.0
20260506003203 57 91 2.0 5.0 0.00 0.05 0.00 90 1011.0
20260506003103 57 92 2.0 5.0 0.00 0.05 0.00 90 1011.0
20260506003003 57 92 2.0 5.0 0.00 0.05 0.00 90 1011.1
20260506002903 57 93 2.0 4.0 0.00 0.05 0.00 90 1011.1
20260506002803 57 97 2.0 4.0 0.00 0.05 0.00 90 1011.1
20260506002703 57 99 2.0 4.0 0.00 0.05 0.00 90 1011.1
20260506002603 57 102 2.0 4.0 0.00 0.05 0.00 90 1011.2
20260506002503 57 101 1.0 4.0 0.00 0.05 0.00 90 1011.1
20260506002403 57 101 1.0 4.0 0.00 0.05 0.00 90 1011.1
20260506002305 57 109 2.0 4.0 0.00 0.05 0.00 90 1011.1
20260506002203 57 111 1.0 4.0 0.00 0.05 0.00 90 1011.1
20260506002103 57 110 1.0 4.0 0.00 0.05 0.00 90 1011.2
20260506002003 58 112 1.0 4.0 0.00 0.05 0.00 90 1011.2
20260506001903 57 115 1.0 4.0 0.00 0.05 0.00 90 1011.2
20260506001803 57 114 2.0 4.0 0.00 0.05 0.00 90 1011.2
20260506001703 58 118 1.0 4.0 0.00 0.05 0.00 90 1011.3
20260506001603 58 121 1.0 4.0 0.00 0.05 0.00 90 1011.3
20260506001503 58 121 1.0 4.0 0.00 0.05 0.00 90 1011.2
20260506001403 58 120 1.0 4.0 0.00 0.05 0.00 90 1011.2
20260506001303 58 117 1.0 4.0 0.00 0.05 0.00 90 1011.3
20260506001203 58 115 1.0 4.0 0.00 0.05 0.00 90 1011.3
20260506001103 58 116 1.0 4.0 0.00 0.05 0.00 90 1011.3
20260506001003 58 111 2.0 4.0 0.00 0.05 0.00 90 1011.2
20260506000903 58 108 2.0 4.0 0.00 0.05 0.00 90 1011.2
20260506000803 58 104 1.0 4.0 0.00 0.05 0.00 90 1011.3
20260506000704 58 102 2.0 4.0 0.00 0.05 0.00 90 1011.3
20260506000603 58 101 2.0 4.0 0.00 0.05 0.00 90 1011.3
20260506000503 58 100 2.0 4.0 0.00 0.05 0.00 90 1011.3
20260506000403 58 100 2.0 4.0 0.00 0.05 0.00 90 1011.3
20260506000303 58 97 2.0 4.0 0.00 0.05 0.00 90 1011.3
20260506000204 58 94 2.0 4.0 0.00 0.05 0.00 90 1011.3
20260506000004 58 93 2.0 4.0 0.00 0.05 0.00 90 1011.3
20260505235903 58 95 2.0 4.0 0.00 0.05 0.00 90 1011.4
20260505235803 58 96 2.0 4.0 0.00 0.05 0.00 90 1011.4
20260505235703 58 95 2.0 4.0 0.00 0.05 0.00 90 1011.4
20260505235603 58 92 2.0 4.0 0.00 0.05 0.00 90 1011.4
20260505235503 58 91 1.0 4.0 0.00 0.05 0.00 90 1011.4
20260505235403 58 88 1.0 4.0 0.00 0.05 0.00 90 1011.4
20260505235305 58 88 1.0 4.0 0.00 0.05 0.00 90 1011.4
20260505235203 58 90 1.0 4.0 0.00 0.05 0.00 90 1011.3
20260505235103 58 93 1.0 3.0 0.00 0.05 0.00 90 1011.3
20260505235003 58 96 1.0 3.0 0.00 0.05 0.00 90 1011.4
20260505234903 58 93 1.0 3.0 0.00 0.05 0.00 90 1011.4
20260505234803 58 95 1.0 3.0 0.00 0.05 0.00 90 1011.4
20260505234703 58 99 1.0 3.0 0.00 0.05 0.00 90 1011.4
20260505234603 58 103 1.0 3.0 0.00 0.05 0.00 90 1011.4
20260505234503 58 107 1.0 3.0 0.00 0.05 0.00 90 1011.4
20260505234403 58 112 1.0 3.0 0.00 0.05 0.00 90 1011.5
20260505234303 58 113 1.0 3.0 0.00 0.05 0.00 90 1011.5
20260505234203 58 108 1.0 3.0 0.00 0.05 0.00 90 1011.5
20260505234103 58 101 1.0 3.0 0.00 0.05 0.00 90 1011.5
20260505234003 58 91 1.0 4.0 0.00 0.05 0.00 90 1011.5
20260505233903 58 83 1.0 4.0 0.00 0.05 0.00 90 1011.5
20260505233803 58 82 1.0 4.0 0.00 0.05 0.00 90 1011.5
20260505233703 58 81 1.0 4.0 0.00 0.05 0.00 90 1011.6
20260505233603 58 79 1.0 4.0 0.00 0.05 0.00 90 1011.6